Observation data for Fort McKavett on 12/07/2018      Previous  Date       Current Mesonet Observations  Soil Data  Daily Summary Page  Observations in Plain Language
KMC1 070600Z 01006KT 05/05 A3026 RMK A01 T00540054  RH  100%=      5-min Rain = 0
KMC1 070601Z 35006KT 05/05 A3026 RMK A01 T00540054  RH  100%=      5-min Rain = 0
KMC1 070602Z 34007KT 05/05 A3026 RMK A01 T00540054  RH  100%=      5-min Rain = 0
KMC1 070603Z 34006KT 05/05 A3026 RMK A01 T00540054  RH  100%=      5-min Rain = 0
KMC1 070604Z 34007KT 05/05 A3026 RMK A01 T00540054  RH  100%=      5-min Rain = 0
KMC1 070605Z 34007KT 05/05 A3026 RMK A01 T00530053  RH  100%=      5-min Rain = 0
KMC1 070606Z 34007KT 05/05 A3026 RMK A01 T00530053  RH  100%=      5-min Rain = 0
KMC1 070607Z 35007KT 05/05 A3026 RMK A01 T00520052  RH  100%=      5-min Rain = 0
KMC1 070608Z 35009KT 05/05 A3027 RMK A01 T00520052  RH  100%=      5-min Rain = 0
KMC1 070609Z 34007KT 05/05 A3027 RMK A01 T00520052  RH  100%=      5-min Rain = 0
KMC1 070610Z 34008KT 05/05 A3027 RMK A01 T00520051  RH  100%=      5-min Rain = 0
KMC1 070611Z 36008KT 05/05 A3027 RMK A01 T00510051  RH  100%=      5-min Rain = 0
KMC1 070612Z 35007KT 05/05 A3027 RMK A01 T00510051  RH  100%=      5-min Rain = 0
KMC1 070613Z 35007KT 05/05 A3027 RMK A01 T00510051  RH  100%=      5-min Rain = 0
KMC1 070614Z 00007KT 05/05 A3027 RMK A01 T00500050  RH  100%=      5-min Rain = 0
KMC1 070615Z 00006KT 05/05 A3027 RMK A01 T00510051  RH  100%=      5-min Rain = 0
KMC1 070616Z 36005KT 05/05 A3027 RMK A01 T00500050  RH  100%=      5-min Rain = 0
KMC1 070617Z 36006KT 05/05 A3027 RMK A01 T00510050  RH  100%=      5-min Rain = 0
KMC1 070618Z 00007KT 05/05 A3027 RMK A01 T00500050  RH  100%=      5-min Rain = 0
KMC1 070619Z 35007KT 05/05 A3027 RMK A01 T00510051  RH  100%=      5-min Rain = 0
KMC1 070620Z 36007KT 05/05 A3027 RMK A01 T00500050  RH  100%=      5-min Rain = 0
KMC1 070621Z 35006KT 05/05 A3027 RMK A01 T00510051  RH  100%=      5-min Rain = 0
KMC1 070622Z 36006KT 05/05 A3027 RMK A01 T00510051  RH  100%=      5-min Rain = 0
KMC1 070623Z 01004KT 05/05 A3027 RMK A01 T00510051  RH  100%=      5-min Rain = 0
KMC1 070624Z 01005KT 05/05 A3027 RMK A01 T00510051  RH  100%=      5-min Rain = 0
KMC1 070625Z 01005KT 05/05 A3027 RMK A01 T00500050  RH  100%=      5-min Rain = 0
KMC1 070626Z 01005KT 05/05 A3027 RMK A01 T00510051  RH  100%=      5-min Rain = 0
KMC1 070627Z 01007KT 05/05 A3027 RMK A01 T00510051  RH  100%=      5-min Rain = 0
KMC1 070628Z 00007KT 05/05 A3027 RMK A01 T00500050  RH  100%=      5-min Rain = 0
KMC1 070629Z 36006KT 05/05 A3026 RMK A01 T00500050  RH  100%=      5-min Rain = 0
KMC1 070630Z 36005KT 05/05 A3026 RMK A01 T00500050  RH  100%=      5-min Rain = 0
KMC1 070631Z 00006KT 05/05 A3026 RMK A01 T00500050  RH  100%=      5-min Rain = 0
KMC1 070632Z 36006KT 05/05 A3026 RMK A01 T00500050  RH  100%=      5-min Rain = 0
KMC1 070633Z 02005KT 05/05 A3026 RMK A01 T00500050  RH  100%=      5-min Rain = 0
KMC1 070634Z 01006KT 05/05 A3026 RMK A01 T00500050  RH  100%=      5-min Rain = 0
KMC1 070635Z 01005KT 05/05 A3026 RMK A01 T00500050  RH  100%=      5-min Rain = 0
KMC1 070636Z 02005KT 05/05 A3026 RMK A01 T00500050  RH  100%=      5-min Rain = 0
KMC1 070637Z 01005KT 05/05 A3026 RMK A01 T00500050  RH  100%=      5-min Rain = 0
KMC1 070638Z 02005KT 05/05 A3026 RMK A01 T00500050  RH  100%=      5-min Rain = 0
KMC1 070639Z 01007KT 05/05 A3026 RMK A01 T00500050  RH  100%=      5-min Rain = 0
KMC1 070640Z 01007KT 05/05 A3026 RMK A01 T00500050  RH  100%=      5-min Rain = 0
KMC1 070641Z 02004KT 05/05 A3026 RMK A01 T00490049  RH  100%=      5-min Rain = 0
KMC1 070642Z 01005KT 05/05 A3027 RMK A01 T00490049  RH  100%=      5-min Rain = 0
KMC1 070643Z 01006KT 05/05 A3027 RMK A01 T00490049  RH  100%=      5-min Rain = 0
KMC1 070644Z 01004KT 05/05 A3027 RMK A01 T00490049  RH  100%=      5-min Rain = 0
KMC1 070645Z 01005KT 05/05 A3026 RMK A01 T00490049  RH  100%=      5-min Rain = 0
KMC1 070646Z 01005KT 05/05 A3026 RMK A01 T00490049  RH  100%=      5-min Rain = 0
KMC1 070647Z 01005KT 05/05 A3026 RMK A01 T00490049  RH  100%=      5-min Rain = 0
KMC1 070648Z 02004KT 05/05 A3026 RMK A01 T00490049  RH  100%=      5-min Rain = 0
KMC1 070649Z 02005KT 05/05 A3026 RMK A01 T00490049  RH  100%=      5-min Rain = 0
KMC1 070650Z 02005KT 05/05 A3026 RMK A01 T00490049  RH  100%=      5-min Rain = 0
KMC1 070651Z 02005KT 05/05 A3026 RMK A01 T00490049  RH  100%=      5-min Rain = 0
KMC1 070652Z 01005KT 05/05 A3026 RMK A01 T00490049  RH  100%=      5-min Rain = 0
KMC1 070653Z 00004KT 05/05 A3026 RMK A01 T00490049  RH  100%=      5-min Rain = 0
KMC1 070654Z 01004KT 05/05 A3026 RMK A01 T00490049  RH  100%=      5-min Rain = 0
KMC1 070655Z 00005KT 05/05 A3026 RMK A01 T00490049  RH  100%=      5-min Rain = 0
KMC1 070656Z 36004KT 05/05 A3026 RMK A01 T00490049  RH  100%=      5-min Rain = 0
KMC1 070657Z 00004KT 05/05 A3026 RMK A01 T00490049  RH  100%=      5-min Rain = 0
KMC1 070658Z 00006KT 05/05 A3026 RMK A01 T00500049  RH  100%=      5-min Rain = 0
KMC1 070659Z 36006KT 05/05 A3026 RMK A01 T00490049  RH  100%=      5-min Rain = 0
KMC1 070700Z 00007KT 05/05 A3026 RMK A01 T00490049  RH  100%=      5-min Rain = 0
KMC1 070701Z 00007KT 05/05 A3026 RMK A01 T00480048  RH  100%=      5-min Rain = 0
KMC1 070702Z 00008KT 05/05 A3026 RMK A01 T00480048  RH  100%=      5-min Rain = 0
KMC1 070703Z 36007KT 05/05 A3026 RMK A01 T00480048  RH  100%=      5-min Rain = 0
KMC1 070704Z 00007KT 05/05 A3026 RMK A01 T00480048  RH  100%=      5-min Rain = 0
KMC1 070705Z 01007KT 05/05 A3026 RMK A01 T00470047  RH  100%=      5-min Rain = 0
KMC1 070706Z 00007KT 05/05 A3026 RMK A01 T00470047  RH  100%=      5-min Rain = 0
KMC1 070707Z 00005KT 05/05 A3026 RMK A01 T00470047  RH  100%=      5-min Rain = 0
KMC1 070708Z 00005KT 05/05 A3026 RMK A01 T00470047  RH  100%=      5-min Rain = 0
KMC1 070709Z 00005KT 05/05 A3026 RMK A01 T00470047  RH  100%=      5-min Rain = 0.01
KMC1 070710Z 01007KT 05/05 A3026 RMK A01 T00470047  RH  100%=      5-min Rain = 0
KMC1 070711Z 01006KT 05/05 A3026 RMK A01 T00470047  RH  100%=      5-min Rain = 0
KMC1 070712Z 01005KT 05/05 A3026 RMK A01 T00470047  RH  100%=      5-min Rain = 0
KMC1 070713Z 01006KT 05/05 A3026 RMK A01 T00470047  RH  100%=      5-min Rain = 0
KMC1 070714Z 01006KT 05/05 A3026 RMK A01 T00470047  RH  100%=      5-min Rain = 0
KMC1 070715Z 02006KT 05/05 A3026 RMK A01 T00470047  RH  100%=      5-min Rain = 0
KMC1 070716Z 01006KT 05/05 A3025 RMK A01 T00470047  RH  100%=      5-min Rain = 0
KMC1 070717Z 01005KT 05/05 A3025 RMK A01 T00470047  RH  100%=      5-min Rain = 0
KMC1 070718Z 01006KT 05/05 A3025 RMK A01 T00470046  RH  100%=      5-min Rain = 0
KMC1 070719Z 01006KT 05/05 A3025 RMK A01 T00470047  RH  100%=      5-min Rain = 0
KMC1 070720Z 00006KT 05/05 A3025 RMK A01 T00470047  RH  100%=      5-min Rain = 0
KMC1 070721Z 00007KT 05/05 A3025 RMK A01 T00470047  RH  100%=      5-min Rain = 0
KMC1 070722Z 01006KT 05/05 A3025 RMK A01 T00470046  RH  100%=      5-min Rain = 0
KMC1 070723Z 01005KT 05/05 A3025 RMK A01 T00460046  RH  100%=      5-min Rain = 0
KMC1 070724Z 01007KT 05/05 A3025 RMK A01 T00470047  RH  100%=      5-min Rain = 0
KMC1 070725Z 01006KT 05/05 A3025 RMK A01 T00460046  RH  100%=      5-min Rain = 0
KMC1 070726Z 02006KT 05/05 A3025 RMK A01 T00460046  RH  100%=      5-min Rain = 0
KMC1 070727Z 01005KT 05/05 A3025 RMK A01 T00460046  RH  100%=      5-min Rain = 0
KMC1 070728Z 01005KT 05/05 A3025 RMK A01 T00460046  RH  100%=      5-min Rain = 0
KMC1 070729Z 01005KT 05/05 A3025 RMK A01 T00460046  RH  100%=      5-min Rain = 0
KMC1 070730Z 02005KT 05/05 A3025 RMK A01 T00460046  RH  100%=      5-min Rain = 0
KMC1 070731Z 03005KT 05/05 A3025 RMK A01 T00460046  RH  100%=      5-min Rain = 0
KMC1 070732Z 03005KT 05/05 A3025 RMK A01 T00460046  RH  100%=      5-min Rain = 0
KMC1 070733Z 03006KT 05/05 A3025 RMK A01 T00460046  RH  100%=      5-min Rain = 0
KMC1 070734Z 03005KT 05/05 A3025 RMK A01 T00460046  RH  100%=      5-min Rain = 0
KMC1 070735Z 03004KT 05/05 A3024 RMK A01 T00460046  RH  100%=      5-min Rain = 0
KMC1 070736Z 04004KT 05/05 A3025 RMK A01 T00460046  RH  100%=      5-min Rain = 0
KMC1 070737Z 04004KT 05/05 A3025 RMK A01 T00460046  RH  100%=      5-min Rain = 0
KMC1 070738Z 03003KT 05/05 A3025 RMK A01 T00460046  RH  100%=      5-min Rain = 0
KMC1 070739Z 02004KT 05/05 A3025 RMK A01 T00460046  RH  100%=      5-min Rain = 0
KMC1 070740Z 04004KT 05/05 A3025 RMK A01 T00470046  RH  100%=      5-min Rain = 0
KMC1 070741Z 03004KT 05/05 A3025 RMK A01 T00460046  RH  100%=      5-min Rain = 0
KMC1 070742Z 03006KT 05/05 A3025 RMK A01 T00460046  RH  100%=      5-min Rain = 0
KMC1 070743Z 03005KT 05/05 A3025 RMK A01 T00460046  RH  100%=      5-min Rain = 0
KMC1 070744Z 03006KT 05/05 A3025 RMK A01 T00460046  RH  100%=      5-min Rain = 0
KMC1 070745Z 03005KT 05/05 A3025 RMK A01 T00460046  RH  100%=      5-min Rain = 0
KMC1 070746Z 03004KT 05/05 A3025 RMK A01 T00460046  RH  100%=      5-min Rain = 0
KMC1 070747Z 01004KT 05/05 A3025 RMK A01 T00460046  RH  100%=      5-min Rain = 0
KMC1 070748Z 02005KT 05/05 A3026 RMK A01 T00460046  RH  100%=      5-min Rain = 0
KMC1 070749Z 01005KT 05/05 A3026 RMK A01 T00460045  RH  100%=      5-min Rain = 0
KMC1 070750Z 00004KT 05/05 A3026 RMK A01 T00450045  RH  100%=      5-min Rain = 0
KMC1 070751Z 00004KT 05/05 A3026 RMK A01 T00460046  RH  100%=      5-min Rain = 0
KMC1 070752Z 36004KT 05/05 A3026 RMK A01 T00460046  RH  100%=      5-min Rain = 0
KMC1 070753Z 36006KT 05/05 A3026 RMK A01 T00460046  RH  100%=      5-min Rain = 0
KMC1 070754Z 36004KT 05/05 A3026 RMK A01 T00460046  RH  100%=      5-min Rain = 0
KMC1 070755Z 01004KT 05/05 A3026 RMK A01 T00460046  RH  100%=      5-min Rain = 0
KMC1 070756Z 00004KT 05/05 A3026 RMK A01 T00460046  RH  100%=      5-min Rain = 0
KMC1 070757Z 35003KT 05/05 A3026 RMK A01 T00460046  RH  100%=      5-min Rain = 0
KMC1 070758Z 35004KT 05/05 A3026 RMK A01 T00460046  RH  100%=      5-min Rain = 0
KMC1 070759Z 36004KT 05/05 A3026 RMK A01 T00460046  RH  100%=      5-min Rain = 0
KMC1 070800Z 36003KT 05/05 A3026 RMK A01 T00460046  RH  100%=      5-min Rain = 0
KMC1 070801Z 36004KT 05/05 A3026 RMK A01 T00470047  RH  100%=      5-min Rain = 0
KMC1 070802Z 02004KT 05/05 A3026 RMK A01 T00460046  RH  100%=      5-min Rain = 0
KMC1 070803Z 01004KT 05/05 A3026 RMK A01 T00460046  RH  100%=      5-min Rain = 0
KMC1 070804Z 01004KT 05/05 A3026 RMK A01 T00460046  RH  100%=      5-min Rain = 0
KMC1 070805Z 01004KT 05/05 A3026 RMK A01 T00460046  RH  100%=      5-min Rain = 0
KMC1 070806Z 03004KT 05/05 A3026 RMK A01 T00460046  RH  100%=      5-min Rain = 0
KMC1 070807Z 01004KT 05/05 A3026 RMK A01 T00460045  RH  100%=      5-min Rain = 0
KMC1 070808Z 01004KT 05/05 A3026 RMK A01 T00450045  RH  100%=      5-min Rain = 0
KMC1 070809Z 01004KT 05/05 A3026 RMK A01 T00460046  RH  100%=      5-min Rain = 0
KMC1 070810Z 01005KT 05/05 A3026 RMK A01 T00460045  RH  100%=      5-min Rain = 0
KMC1 070811Z 01005KT 05/05 A3026 RMK A01 T00460046  RH  100%=      5-min Rain = 0
KMC1 070812Z 01004KT 05/05 A3026 RMK A01 T00450045  RH  100%=      5-min Rain = 0
KMC1 070813Z 02005KT 05/05 A3026 RMK A01 T00460046  RH  100%=      5-min Rain = 0
KMC1 070814Z 01003KT 05/05 A3026 RMK A01 T00460046  RH  100%=      5-min Rain = 0
KMC1 070815Z 02004KT 05/05 A3026 RMK A01 T00460046  RH  100%=      5-min Rain = 0
KMC1 070816Z 02004KT 05/05 A3026 RMK A01 T00450045  RH  100%=      5-min Rain = 0
KMC1 070817Z 02004KT 05/05 A3025 RMK A01 T00450045  RH  100%=      5-min Rain = 0
KMC1 070818Z 02003KT 05/05 A3025 RMK A01 T00460046  RH  100%=      5-min Rain = 0
KMC1 070819Z 00004KT 05/05 A3026 RMK A01 T00460046  RH  100%=      5-min Rain = 0
KMC1 070820Z 01005KT 05/05 A3026 RMK A01 T00460046  RH  100%=      5-min Rain = 0
KMC1 070821Z 00006KT 05/05 A3026 RMK A01 T00460046  RH  100%=      5-min Rain = 0
KMC1 070822Z 36005KT 05/05 A3026 RMK A01 T00460046  RH  100%=      5-min Rain = 0
KMC1 070823Z 01005KT 05/05 A3026 RMK A01 T00460046  RH  100%=      5-min Rain = 0
KMC1 070824Z 01004KT 05/05 A3026 RMK A01 T00460046  RH  100%=      5-min Rain = 0
KMC1 070825Z 01003KT 05/05 A3026 RMK A01 T00460046  RH  100%=      5-min Rain = 0
KMC1 070826Z 00005KT 05/05 A3026 RMK A01 T00460046  RH  100%=      5-min Rain = 0
KMC1 070827Z 00005KT 05/05 A3026 RMK A01 T00460046  RH  100%=      5-min Rain = 0
KMC1 070828Z 36004KT 05/05 A3026 RMK A01 T00460046  RH  100%=      5-min Rain = 0
KMC1 070829Z 00004KT 05/05 A3026 RMK A01 T00460046  RH  100%=      5-min Rain = 0
KMC1 070830Z 36003KT 05/05 A3026 RMK A01 T00460046  RH  100%=      5-min Rain = 0
KMC1 070831Z 01004KT 05/05 A3026 RMK A01 T00470047  RH  100%=      5-min Rain = 0
KMC1 070832Z 00004KT 05/05 A3026 RMK A01 T00460046  RH  100%=      5-min Rain = 0
KMC1 070833Z 36004KT 05/05 A3026 RMK A01 T00470047  RH  100%=      5-min Rain = 0
KMC1 070834Z 01004KT 05/05 A3026 RMK A01 T00460046  RH  100%=      5-min Rain = 0
KMC1 070835Z 01003KT 05/05 A3026 RMK A01 T00470047  RH  100%=      5-min Rain = 0
KMC1 070836Z 02003KT 05/05 A3026 RMK A01 T00470047  RH  100%=      5-min Rain = 0
KMC1 070837Z 00004KT 05/05 A3026 RMK A01 T00460046  RH  100%=      5-min Rain = 0
KMC1 070838Z 01004KT 05/05 A3026 RMK A01 T00460046  RH  100%=      5-min Rain = 0
KMC1 070839Z 01004KT 05/05 A3026 RMK A01 T00460046  RH  100%=      5-min Rain = 0
KMC1 070840Z 01003KT 05/05 A3026 RMK A01 T00460046  RH  100%=      5-min Rain = 0
KMC1 070841Z 36003KT 05/05 A3026 RMK A01 T00470046  RH  100%=      5-min Rain = 0
KMC1 070842Z 01003KT 05/05 A3026 RMK A01 T00460046  RH  100%=      5-min Rain = 0
KMC1 070843Z 35003KT 05/05 A3026 RMK A01 T00460046  RH  100%=      5-min Rain = 0
KMC1 070844Z 35004KT 05/05 A3026 RMK A01 T00470046  RH  100%=      5-min Rain = 0
KMC1 070845Z 36003KT 05/05 A3026 RMK A01 T00460046  RH  100%=      5-min Rain = 0
KMC1 070846Z 36004KT 05/05 A3026 RMK A01 T00460046  RH  100%=      5-min Rain = 0
KMC1 070847Z 35004KT 05/05 A3026 RMK A01 T00460046  RH  100%=      5-min Rain = 0
KMC1 070848Z 35004KT 05/05 A3026 RMK A01 T00460046  RH  100%=      5-min Rain = 0
KMC1 070849Z 35004KT 05/05 A3026 RMK A01 T00460046  RH  100%=      5-min Rain = 0
KMC1 070850Z 35004KT 05/05 A3026 RMK A01 T00460046  RH  100%=      5-min Rain = 0
KMC1 070851Z 35003KT 05/05 A3026 RMK A01 T00460046  RH  100%=      5-min Rain = 0
KMC1 070852Z 36004KT 05/05 A3026 RMK A01 T00460046  RH  100%=      5-min Rain = 0
KMC1 070853Z 35004KT 05/05 A3026 RMK A01 T00460046  RH  100%=      5-min Rain = 0
KMC1 070854Z 00004KT 05/05 A3026 RMK A01 T00460046  RH  100%=      5-min Rain = 0
KMC1 070855Z 36005KT 05/05 A3026 RMK A01 T00460046  RH  100%=      5-min Rain = 0
KMC1 070856Z 36004KT 05/05 A3026 RMK A01 T00460046  RH  100%=      5-min Rain = 0
KMC1 070857Z 00005KT 05/05 A3026 RMK A01 T00460046  RH  100%=      5-min Rain = 0
KMC1 070858Z 00005KT 05/05 A3026 RMK A01 T00460046  RH  100%=      5-min Rain = 0
KMC1 070859Z 01006KT 05/05 A3026 RMK A01 T00460046  RH  100%=      5-min Rain = 0
KMC1 070900Z 01005KT 05/05 A3026 RMK A01 T00460046  RH  100%=      5-min Rain = 0
KMC1 070901Z 01006KT 05/05 A3026 RMK A01 T00460046  RH  100%=      5-min Rain = 0
KMC1 070902Z 00006KT 05/05 A3026 RMK A01 T00460046  RH  100%=      5-min Rain = 0
KMC1 070903Z 01005KT 05/05 A3026 RMK A01 T00460046  RH  100%=      5-min Rain = 0
KMC1 070904Z 00004KT 05/05 A3026 RMK A01 T00460046  RH  100%=      5-min Rain = 0
KMC1 070905Z 00005KT 05/05 A3026 RMK A01 T00460046  RH  100%=      5-min Rain = 0
KMC1 070906Z 00005KT 05/05 A3026 RMK A01 T00460046  RH  100%=      5-min Rain = 0
KMC1 070907Z 01006KT 05/05 A3026 RMK A01 T00460046  RH  100%=      5-min Rain = 0
KMC1 070908Z 35005KT 05/05 A3026 RMK A01 T00460046  RH  100%=      5-min Rain = 0
KMC1 070909Z 35005KT 05/05 A3026 RMK A01 T00460046  RH  100%=      5-min Rain = 0
KMC1 070910Z 01004KT 05/05 A3026 RMK A01 T00460046  RH  100%=      5-min Rain = 0
KMC1 070911Z 01004KT 05/05 A3026 RMK A01 T00460046  RH  100%=      5-min Rain = 0
KMC1 070912Z 01008KT 05/05 A3026 RMK A01 T00460046  RH  100%=      5-min Rain = 0
KMC1 070913Z 01007KT 05/05 A3026 RMK A01 T00460046  RH  100%=      5-min Rain = 0
KMC1 070914Z 01005KT 05/05 A3026 RMK A01 T00460046  RH  100%=      5-min Rain = 0
KMC1 070915Z 01005KT 05/05 A3026 RMK A01 T00460046  RH  100%=      5-min Rain = 0
KMC1 070916Z 00005KT 05/05 A3026 RMK A01 T00460046  RH  100%=      5-min Rain = 0
KMC1 070917Z 01006KT 05/05 A3025 RMK A01 T00460046  RH  100%=      5-min Rain = 0
KMC1 070918Z 01006KT 05/05 A3025 RMK A01 T00460046  RH  100%=      5-min Rain = 0
KMC1 070919Z 01005KT 05/05 A3025 RMK A01 T00460046  RH  100%=      5-min Rain = 0
KMC1 070920Z 01006KT 05/05 A3025 RMK A01 T00460046  RH  100%=      5-min Rain = 0
KMC1 070921Z 01006KT 05/05 A3025 RMK A01 T00460046  RH  100%=      5-min Rain = 0
KMC1 070922Z 02007KT 05/05 A3025 RMK A01 T00460046  RH  100%=      5-min Rain = 0
KMC1 070923Z 01006KT 05/05 A3025 RMK A01 T00460046  RH  100%=      5-min Rain = 0
KMC1 070924Z 00005KT 05/05 A3025 RMK A01 T00450045  RH  100%=      5-min Rain = 0
KMC1 070925Z 02007KT 05/05 A3025 RMK A01 T00460046  RH  100%=      5-min Rain = 0
KMC1 070926Z 02007KT 05/05 A3025 RMK A01 T00450045  RH  100%=      5-min Rain = 0
KMC1 070927Z 02005KT 05/05 A3025 RMK A01 T00450045  RH  100%=      5-min Rain = 0
KMC1 070928Z 02005KT 05/05 A3025 RMK A01 T00460045  RH  100%=      5-min Rain = 0
KMC1 070929Z 01006KT 05/05 A3025 RMK A01 T00450045  RH  100%=      5-min Rain = 0
KMC1 070930Z 00005KT 05/05 A3025 RMK A01 T00450045  RH  100%=      5-min Rain = 0
KMC1 070931Z 01006KT 05/05 A3025 RMK A01 T00450045  RH  100%=      5-min Rain = 0
KMC1 070932Z 00007KT 05/05 A3025 RMK A01 T00460045  RH  100%=      5-min Rain = 0
KMC1 070933Z 01006KT 05/05 A3025 RMK A01 T00460046  RH  100%=      5-min Rain = 0
KMC1 070934Z 36006KT 05/05 A3025 RMK A01 T00460045  RH  100%=      5-min Rain = 0
KMC1 070935Z 01008KT 05/05 A3025 RMK A01 T00460046  RH  100%=      5-min Rain = 0
KMC1 070936Z 02007KT 05/05 A3025 RMK A01 T00450045  RH  100%=      5-min Rain = 0
KMC1 070937Z 02006KT 05/05 A3025 RMK A01 T00460046  RH  100%=      5-min Rain = 0
KMC1 070938Z 02005KT 05/05 A3025 RMK A01 T00450045  RH  100%=      5-min Rain = 0
KMC1 070939Z 00004KT 05/05 A3025 RMK A01 T00450045  RH  100%=      5-min Rain = 0
KMC1 070940Z 35006KT 05/05 A3026 RMK A01 T00450045  RH  100%=      5-min Rain = 0
KMC1 070941Z 00006KT 05/05 A3026 RMK A01 T00450045  RH  100%=      5-min Rain = 0
KMC1 070942Z 01005KT 05/05 A3026 RMK A01 T00460046  RH  100%=      5-min Rain = 0
KMC1 070943Z 01007KT 05/05 A3026 RMK A01 T00450045  RH  100%=      5-min Rain = 0
KMC1 070944Z 01007KT 05/05 A3026 RMK A01 T00460045  RH  100%=      5-min Rain = 0
KMC1 070945Z 01006KT 05/05 A3026 RMK A01 T00450045  RH  100%=      5-min Rain = 0
KMC1 070946Z 00004KT 05/05 A3026 RMK A01 T00450045  RH  100%=      5-min Rain = 0
KMC1 070947Z 35005KT 05/05 A3026 RMK A01 T00450045  RH  100%=      5-min Rain = 0
KMC1 070948Z 36005KT 05/05 A3026 RMK A01 T00450045  RH  100%=      5-min Rain = 0
KMC1 070949Z 01005KT 05/05 A3026 RMK A01 T00460045  RH  100%=      5-min Rain = 0
KMC1 070950Z 01006KT 05/05 A3026 RMK A01 T00460046  RH  100%=      5-min Rain = 0
KMC1 070951Z 00006KT 05/05 A3026 RMK A01 T00450045  RH  100%=      5-min Rain = 0
KMC1 070952Z 01006KT 05/05 A3026 RMK A01 T00460045  RH  100%=      5-min Rain = 0
KMC1 070953Z 36005KT 05/05 A3026 RMK A01 T00460046  RH  100%=      5-min Rain = 0
KMC1 070954Z 00006KT 05/05 A3026 RMK A01 T00450045  RH  100%=      5-min Rain = 0
KMC1 070955Z 35005KT 05/05 A3026 RMK A01 T00450045  RH  100%=      5-min Rain = 0
KMC1 070956Z 36006KT 05/05 A3026 RMK A01 T00460046  RH  100%=      5-min Rain = 0
KMC1 070957Z 00007KT 05/05 A3026 RMK A01 T00460045  RH  100%=      5-min Rain = 0
KMC1 070958Z 01006KT 05/05 A3026 RMK A01 T00450045  RH  100%=      5-min Rain = 0
KMC1 070959Z 00006KT 05/05 A3026 RMK A01 T00450045  RH  100%=      5-min Rain = 0
KMC1 071000Z 00006KT 05/05 A3026 RMK A01 T00460046  RH  100%=      5-min Rain = 0
KMC1 071001Z 01005KT 05/05 A3026 RMK A01 T00460045  RH  100%=      5-min Rain = 0
KMC1 071002Z 00005KT 05/05 A3026 RMK A01 T00450045  RH  100%=      5-min Rain = 0
KMC1 071003Z 00005KT 05/05 A3026 RMK A01 T00460046  RH  100%=      5-min Rain = 0
KMC1 071004Z 36004KT 05/05 A3026 RMK A01 T00460046  RH  100%=      5-min Rain = 0
KMC1 071005Z 36004KT 05/05 A3026 RMK A01 T00460046  RH  100%=      5-min Rain = 0
KMC1 071006Z 00005KT 05/05 A3026 RMK A01 T00460046  RH  100%=      5-min Rain = 0
KMC1 071007Z 01004KT 05/05 A3026 RMK A01 T00460045  RH  100%=      5-min Rain = 0
KMC1 071008Z 02004KT 05/05 A3026 RMK A01 T00450045  RH  100%=      5-min Rain = 0
KMC1 071009Z 01005KT 05/05 A3026 RMK A01 T00450045  RH  100%=      5-min Rain = 0
KMC1 071010Z 02006KT 05/05 A3026 RMK A01 T00450045  RH  100%=      5-min Rain = 0
KMC1 071011Z 00006KT 05/05 A3026 RMK A01 T00450045  RH  100%=      5-min Rain = 0
KMC1 071012Z 01005KT 05/05 A3026 RMK A01 T00450045  RH  100%=      5-min Rain = 0
KMC1 071013Z 00005KT 05/05 A3026 RMK A01 T00450045  RH  100%=      5-min Rain = 0
KMC1 071014Z 36005KT 05/05 A3026 RMK A01 T00450045  RH  100%=      5-min Rain = 0
KMC1 071015Z 00006KT 05/05 A3026 RMK A01 T00450045  RH  100%=      5-min Rain = 0
KMC1 071016Z 35004KT 05/05 A3026 RMK A01 T00450045  RH  100%=      5-min Rain = 0
KMC1 071017Z 34004KT 05/05 A3026 RMK A01 T00450045  RH  100%=      5-min Rain = 0
KMC1 071018Z 35004KT 05/05 A3026 RMK A01 T00450045  RH  100%=      5-min Rain = 0
KMC1 071019Z 36005KT 05/05 A3026 RMK A01 T00460045  RH  100%=      5-min Rain = 0
KMC1 071020Z 35003KT 05/05 A3026 RMK A01 T00450045  RH  100%=      5-min Rain = 0
KMC1 071021Z 35004KT 05/05 A3026 RMK A01 T00460046  RH  100%=      5-min Rain = 0
KMC1 071022Z 36005KT 05/05 A3026 RMK A01 T00460046  RH  100%=      5-min Rain = 0
KMC1 071023Z 35005KT 05/05 A3026 RMK A01 T00460046  RH  100%=      5-min Rain = 0
KMC1 071024Z 35004KT 05/05 A3026 RMK A01 T00460046  RH  100%=      5-min Rain = 0
KMC1 071025Z 35004KT 05/05 A3026 RMK A01 T00460046  RH  100%=      5-min Rain = 0
KMC1 071026Z 36004KT 05/05 A3026 RMK A01 T00450045  RH  100%=      5-min Rain = 0
KMC1 071027Z 36003KT 05/05 A3026 RMK A01 T00460046  RH  100%=      5-min Rain = 0
KMC1 071028Z 00004KT 05/05 A3026 RMK A01 T00460046  RH  100%=      5-min Rain = 0
KMC1 071029Z 01004KT 05/05 A3026 RMK A01 T00460046  RH  100%=      5-min Rain = 0
KMC1 071030Z 36004KT 05/05 A3026 RMK A01 T00460046  RH  100%=      5-min Rain = 0
KMC1 071031Z 02005KT 05/05 A3026 RMK A01 T00460046  RH  100%=      5-min Rain = 0
KMC1 071032Z 01005KT 05/05 A3026 RMK A01 T00450045  RH  100%=      5-min Rain = 0
KMC1 071033Z 01005KT 05/05 A3025 RMK A01 T00450045  RH  100%=      5-min Rain = 0
KMC1 071034Z 01006KT 05/05 A3025 RMK A01 T00450045  RH  100%=      5-min Rain = 0
KMC1 071035Z 01005KT 05/05 A3025 RMK A01 T00450045  RH  100%=      5-min Rain = 0
KMC1 071036Z 01005KT 05/05 A3025 RMK A01 T00450045  RH  100%=      5-min Rain = 0
KMC1 071037Z 01004KT 04/04 A3026 RMK A01 T00440044  RH  100%=      5-min Rain = 0
KMC1 071038Z 00005KT 05/04 A3026 RMK A01 T00450044  RH  100%=      5-min Rain = 0
KMC1 071039Z 35005KT 04/04 A3026 RMK A01 T00440044  RH  100%=      5-min Rain = 0
KMC1 071040Z 35007KT 05/05 A3026 RMK A01 T00450045  RH  100%=      5-min Rain = 0
KMC1 071041Z 35006KT 05/05 A3026 RMK A01 T00450045  RH  100%=      5-min Rain = 0
KMC1 071042Z 36007KT 04/04 A3026 RMK A01 T00440044  RH  100%=      5-min Rain = 0
KMC1 071043Z 36007KT 04/04 A3026 RMK A01 T00440044  RH  100%=      5-min Rain = 0
KMC1 071044Z 35005KT 04/04 A3026 RMK A01 T00440044  RH  100%=      5-min Rain = 0
KMC1 071045Z 35007KT 04/04 A3026 RMK A01 T00440044  RH  100%=      5-min Rain = 0
KMC1 071046Z 35005KT 04/04 A3026 RMK A01 T00440044  RH  100%=      5-min Rain = 0
KMC1 071047Z 36006KT 04/04 A3026 RMK A01 T00440044  RH  100%=      5-min Rain = 0
KMC1 071048Z 36006KT 04/04 A3026 RMK A01 T00440044  RH  100%=      5-min Rain = 0
KMC1 071049Z 36005KT 04/04 A3026 RMK A01 T00440044  RH  100%=      5-min Rain = 0
KMC1 071050Z 00006KT 04/04 A3026 RMK A01 T00440044  RH  100%=      5-min Rain = 0
KMC1 071051Z 01006KT 04/04 A3026 RMK A01 T00440044  RH  100%=      5-min Rain = 0
KMC1 071052Z 01006KT 04/04 A3026 RMK A01 T00440044  RH  100%=      5-min Rain = 0
KMC1 071053Z 01007KT 04/04 A3026 RMK A01 T00440044  RH  100%=      5-min Rain = 0
KMC1 071054Z 00005KT 04/04 A3026 RMK A01 T00440044  RH  100%=      5-min Rain = 0
KMC1 071055Z 00005KT 04/04 A3026 RMK A01 T00440044  RH  100%=      5-min Rain = 0
KMC1 071056Z 35007KT 04/04 A3026 RMK A01 T00440044  RH  100%=      5-min Rain = 0
KMC1 071057Z 35006KT 04/04 A3026 RMK A01 T00440044  RH  100%=      5-min Rain = 0
KMC1 071058Z 35005KT 04/04 A3026 RMK A01 T00440044  RH  100%=      5-min Rain = 0
KMC1 071059Z 01007KT 04/04 A3026 RMK A01 T00440044  RH  100%=      5-min Rain = 0
KMC1 071100Z 00007KT 04/04 A3026 RMK A01 T00440044  RH  100%=      5-min Rain = 0
KMC1 071101Z 00007KT 04/04 A3026 RMK A01 T00440044  RH  100%=      5-min Rain = 0
KMC1 071102Z 36009KT 04/04 A3026 RMK A01 T00440044  RH  100%=      5-min Rain = 0
KMC1 071103Z 00007KT 04/04 A3026 RMK A01 T00440044  RH  100%=      5-min Rain = 0.01
KMC1 071104Z 36006KT 04/04 A3026 RMK A01 T00440044  RH  100%=      5-min Rain = 0
KMC1 071105Z 35007KT 04/04 A3026 RMK A01 T00440044  RH  100%=      5-min Rain = 0
KMC1 071106Z 00005KT 04/04 A3026 RMK A01 T00440044  RH  100%=      5-min Rain = 0
KMC1 071107Z 00007KT 04/04 A3026 RMK A01 T00440044  RH  100%=      5-min Rain = 0
KMC1 071108Z 00005KT 04/04 A3026 RMK A01 T00440044  RH  100%=      5-min Rain = 0
KMC1 071109Z 36006KT 04/04 A3026 RMK A01 T00440044  RH  100%=      5-min Rain = 0
KMC1 071110Z 35005KT 04/04 A3026 RMK A01 T00440044  RH  100%=      5-min Rain = 0
KMC1 071111Z 36005KT 04/04 A3026 RMK A01 T00440044  RH  100%=      5-min Rain = 0
KMC1 071112Z 00007KT 04/04 A3026 RMK A01 T00440044  RH  100%=      5-min Rain = 0
KMC1 071113Z 36008KT 04/04 A3026 RMK A01 T00440044  RH  100%=      5-min Rain = 0
KMC1 071114Z 36007KT 04/04 A3026 RMK A01 T00440044  RH  100%=      5-min Rain = 0
KMC1 071115Z 00007KT 04/04 A3026 RMK A01 T00440044  RH  100%=      5-min Rain = 0
KMC1 071116Z 36008KT 04/04 A3026 RMK A01 T00440044  RH  100%=      5-min Rain = 0
KMC1 071117Z 36008KT 04/04 A3026 RMK A01 T00440044  RH  100%=      5-min Rain = 0
KMC1 071118Z 36008KT 04/04 A3026 RMK A01 T00440044  RH  100%=      5-min Rain = 0
KMC1 071119Z 36007KT 04/04 A3026 RMK A01 T00440044  RH  100%=      5-min Rain = 0
KMC1 071120Z 36006KT 04/04 A3026 RMK A01 T00440044  RH  100%=      5-min Rain = 0
KMC1 071121Z 36006KT 04/04 A3026 RMK A01 T00440044  RH  100%=      5-min Rain = 0
KMC1 071122Z 36005KT 04/04 A3026 RMK A01 T00440044  RH  100%=      5-min Rain = 0
KMC1 071123Z 00008KT 04/04 A3026 RMK A01 T00440044  RH  100%=      5-min Rain = 0
KMC1 071124Z 00007KT 04/04 A3026 RMK A01 T00440044  RH  100%=      5-min Rain = 0
KMC1 071125Z 00007KT 04/04 A3026 RMK A01 T00440044  RH  100%=      5-min Rain = 0
KMC1 071126Z 00008KT 04/04 A3026 RMK A01 T00440044  RH  100%=      5-min Rain = 0
KMC1 071127Z 01008KT 04/04 A3026 RMK A01 T00440043  RH  100%=      5-min Rain = 0
KMC1 071128Z 00006KT 04/04 A3026 RMK A01 T00440044  RH  100%=      5-min Rain = 0
KMC1 071129Z 36006KT 04/04 A3026 RMK A01 T00440044  RH  100%=      5-min Rain = 0
KMC1 071130Z 00007KT 04/04 A3026 RMK A01 T00440043  RH  100%=      5-min Rain = 0
KMC1 071131Z 35007KT 04/04 A3026 RMK A01 T00440044  RH  100%=      5-min Rain = 0
KMC1 071132Z 35008KT 04/04 A3026 RMK A01 T00440044  RH  100%=      5-min Rain = 0
KMC1 071133Z 35007KT 04/04 A3026 RMK A01 T00440044  RH  100%=      5-min Rain = 0
KMC1 071134Z 35006KT 04/04 A3026 RMK A01 T00440044  RH  100%=      5-min Rain = 0
KMC1 071135Z 35010KT 04/04 A3026 RMK A01 T00430043  RH  100%=      5-min Rain = 0
KMC1 071136Z 36008KT 04/04 A3026 RMK A01 T00440044  RH  100%=      5-min Rain = 0
KMC1 071137Z 00006KT 04/04 A3026 RMK A01 T00430043  RH  100%=      5-min Rain = 0
KMC1 071138Z 00006KT 04/04 A3026 RMK A01 T00430043  RH  100%=      5-min Rain = 0
KMC1 071139Z 00005KT 04/04 A3026 RMK A01 T00430043  RH  100%=      5-min Rain = 0
KMC1 071140Z 36005KT 04/04 A3026 RMK A01 T00430043  RH  100%=      5-min Rain = 0
KMC1 071141Z 01006KT 04/04 A3026 RMK A01 T00440044  RH  100%=      5-min Rain = 0
KMC1 071142Z 00007KT 04/04 A3026 RMK A01 T00440043  RH  100%=      5-min Rain = 0
KMC1 071143Z 01006KT 04/04 A3026 RMK A01 T00440044  RH  100%=      5-min Rain = 0
KMC1 071144Z 01006KT 04/04 A3026 RMK A01 T00430043  RH  100%=      5-min Rain = 0
KMC1 071145Z 01006KT 04/04 A3026 RMK A01 T00440044  RH  100%=      5-min Rain = 0
KMC1 071146Z 01006KT 04/04 A3026 RMK A01 T00440044  RH  100%=      5-min Rain = 0
KMC1 071147Z 00004KT 04/04 A3026 RMK A01 T00440044  RH  100%=      5-min Rain = 0
KMC1 071148Z 01006KT 04/04 A3026 RMK A01 T00440044  RH  100%=      5-min Rain = 0
KMC1 071149Z 00005KT 04/04 A3027 RMK A01 T00440044  RH  100%=      5-min Rain = 0
KMC1 071150Z 01006KT 04/04 A3027 RMK A01 T00440043  RH  100%=      5-min Rain = 0
KMC1 071151Z 01007KT 04/04 A3027 RMK A01 T00440044  RH  100%=      5-min Rain = 0
KMC1 071152Z 01004KT 04/04 A3027 RMK A01 T00440044  RH  100%=      5-min Rain = 0
KMC1 071153Z 01005KT 04/04 A3027 RMK A01 T00430043  RH  100%=      5-min Rain = 0
KMC1 071154Z 00005KT 04/04 A3027 RMK A01 T00440044  RH  100%=      5-min Rain = 0
KMC1 071155Z 36005KT 04/04 A3027 RMK A01 T00440044  RH  100%=      5-min Rain = 0
KMC1 071156Z 36004KT 04/04 A3027 RMK A01 T00440044  RH  100%=      5-min Rain = 0
KMC1 071157Z 35005KT 04/04 A3027 RMK A01 T00440044  RH  100%=      5-min Rain = 0
KMC1 071158Z 36005KT 04/04 A3027 RMK A01 T00440044  RH  100%=      5-min Rain = 0
KMC1 071159Z 35005KT 04/04 A3027 RMK A01 T00440044  RH  100%=      5-min Rain = 0
KMC1 071200Z 35003KT 04/04 A3027 RMK A01 T00440044  RH  100%=      5-min Rain = 0
KMC1 071201Z 34005KT 04/04 A3027 RMK A01 T00440044  RH  100%=      5-min Rain = 0
KMC1 071202Z 33004KT 04/04 A3027 RMK A01 T00440044  RH  100%=      5-min Rain = 0
KMC1 071203Z 34005KT 04/04 A3027 RMK A01 T00440044  RH  100%=      5-min Rain = 0
KMC1 071204Z 34005KT 04/04 A3027 RMK A01 T00440044  RH  100%=      5-min Rain = 0
KMC1 071205Z 33005KT 04/04 A3027 RMK A01 T00440044  RH  100%=      5-min Rain = 0
KMC1 071206Z 33006KT 04/04 A3027 RMK A01 T00440044  RH  100%=      5-min Rain = 0
KMC1 071207Z 34006KT 04/04 A3027 RMK A01 T00440044  RH  100%=      5-min Rain = 0
KMC1 071208Z 33008KT 04/04 A3027 RMK A01 T00440044  RH  100%=      5-min Rain = 0
KMC1 071209Z 34007KT 04/04 A3027 RMK A01 T00440044  RH  100%=      5-min Rain = 0
KMC1 071210Z 33006KT 04/04 A3027 RMK A01 T00440044  RH  100%=      5-min Rain = 0
KMC1 071211Z 33005KT 04/04 A3027 RMK A01 T00440044  RH  100%=      5-min Rain = 0
KMC1 071212Z 34005KT 04/04 A3028 RMK A01 T00440044  RH  100%=      5-min Rain = 0
KMC1 071213Z 35004KT 04/04 A3028 RMK A01 T00440044  RH  100%=      5-min Rain = 0
KMC1 071214Z 35006KT 04/04 A3028 RMK A01 T00440044  RH  100%=      5-min Rain = 0
KMC1 071215Z 35008KT 04/04 A3028 RMK A01 T00440044  RH  100%=      5-min Rain = 0
KMC1 071216Z 35008KT 04/04 A3028 RMK A01 T00440044  RH  100%=      5-min Rain = 0
KMC1 071217Z 36007KT 04/04 A3028 RMK A01 T00440044  RH  100%=      5-min Rain = 0
KMC1 071218Z 35008KT 04/04 A3028 RMK A01 T00440044  RH  100%=      5-min Rain = 0
KMC1 071219Z 35007KT 04/04 A3028 RMK A01 T00430043  RH  100%=      5-min Rain = 0
KMC1 071220Z 00005KT 04/04 A3028 RMK A01 T00430043  RH  100%=      5-min Rain = 0
KMC1 071221Z 35006KT 04/04 A3027 RMK A01 T00430043  RH  100%=      5-min Rain = 0
KMC1 071222Z 36005KT 04/04 A3027 RMK A01 T00430043  RH  100%=      5-min Rain = 0
KMC1 071223Z 36006KT 04/04 A3027 RMK A01 T00430043  RH  100%=      5-min Rain = 0
KMC1 071224Z 01005KT 04/04 A3027 RMK A01 T00430043  RH  100%=      5-min Rain = 0
KMC1 071225Z 35005KT 04/04 A3027 RMK A01 T00430043  RH  100%=      5-min Rain = 0
KMC1 071226Z 35004KT 04/04 A3027 RMK A01 T00430043  RH  100%=      5-min Rain = 0
KMC1 071227Z 34007KT 04/04 A3027 RMK A01 T00430043  RH  100%=      5-min Rain = 0
KMC1 071228Z 36007KT 04/04 A3027 RMK A01 T00430043  RH  100%=      5-min Rain = 0
KMC1 071229Z 36006KT 04/04 A3027 RMK A01 T00430043  RH  100%=      5-min Rain = 0
KMC1 071230Z 36007KT 04/04 A3027 RMK A01 T00430043  RH  100%=      5-min Rain = 0
KMC1 071231Z 35008KT 04/04 A3027 RMK A01 T00430043  RH  100%=      5-min Rain = 0
KMC1 071232Z 35009KT 04/04 A3027 RMK A01 T00430043  RH  100%=      5-min Rain = 0
KMC1 071233Z 36008KT 04/04 A3027 RMK A01 T00420042  RH  100%=      5-min Rain = 0
KMC1 071234Z 01009KT 04/04 A3027 RMK A01 T00420042  RH  100%=      5-min Rain = 0.01
KMC1 071235Z 00008KT 04/04 A3027 RMK A01 T00420042  RH  100%=      5-min Rain = 0
KMC1 071236Z 35007KT 04/04 A3027 RMK A01 T00420042  RH  100%=      5-min Rain = 0
KMC1 071237Z 35007KT 04/04 A3028 RMK A01 T00420042  RH  100%=      5-min Rain = 0
KMC1 071238Z 35005KT 04/04 A3028 RMK A01 T00420042  RH  100%=      5-min Rain = 0
KMC1 071239Z 34005KT 04/04 A3028 RMK A01 T00420042  RH  100%=      5-min Rain = 0.01
KMC1 071240Z 33004KT 04/04 A3028 RMK A01 T00420042  RH  100%=      5-min Rain = 0
KMC1 071241Z 32005KT 04/04 A3029 RMK A01 T00420042  RH  100%=      5-min Rain = 0
KMC1 071242Z 31005KT 04/04 A3029 RMK A01 T00420042  RH  100%=      5-min Rain = 0
KMC1 071243Z 30007KT 04/04 A303 RMK A01 T00420042  RH  100%=      5-min Rain = 0
KMC1 071244Z 29007KT 04/04 A303 RMK A01 T00420042  RH  100%=      5-min Rain = 0.01
KMC1 071245Z 29005KT 04/04 A303 RMK A01 T00430043  RH  100%=      5-min Rain = 0
KMC1 071246Z 30006KT 04/04 A303 RMK A01 T00430043  RH  100%=      5-min Rain = 0.01
KMC1 071247Z 29004KT 04/04 A303 RMK A01 T00430043  RH  100%=      5-min Rain = 0.01
KMC1 071248Z 31005KT 04/04 A303 RMK A01 T00430043  RH  100%=      5-min Rain = 0.01
KMC1 071249Z 33006KT 04/04 A3029 RMK A01 T00430043  RH  100%=      5-min Rain = 0.01
KMC1 071250Z 32005KT 04/04 A3029 RMK A01 T00430043  RH  100%=      5-min Rain = 0.01
KMC1 071251Z 32004KT 04/04 A3029 RMK A01 T00430042  RH  100%=      5-min Rain = 0.01
KMC1 071252Z 33006KT 04/04 A3029 RMK A01 T00420042  RH  100%=      5-min Rain = 0.01
KMC1 071253Z 33005KT 04/04 A3029 RMK A01 T00420042  RH  100%=      5-min Rain = 0.01
KMC1 071254Z 34004KT 04/04 A3029 RMK A01 T00420042  RH  100%=      5-min Rain = 0
KMC1 071255Z 34005KT 04/04 A3029 RMK A01 T00420042  RH  100%=      5-min Rain = 0.01
KMC1 071256Z 34005KT 04/04 A3029 RMK A01 T00420042  RH  100%=      5-min Rain = 0
KMC1 071257Z 34004KT 04/04 A3029 RMK A01 T00420042  RH  100%=      5-min Rain = 0.01
KMC1 071258Z 35004KT 04/04 A3029 RMK A01 T00420042  RH  100%=      5-min Rain = 0
KMC1 071259Z 34003KT 04/04 A3029 RMK A01 T00420042  RH  100%=      5-min Rain = 0.01
KMC1 071300Z 35001KT 04/04 A303 RMK A01 T00420042  RH  100%=      5-min Rain = 0
KMC1 071301Z 35001KT 04/04 A303 RMK A01 T00420042  RH  100%=      5-min Rain = 0
KMC1 071302Z 36003KT 04/04 A3029 RMK A01 T00420042  RH  100%=      5-min Rain = 0.01
KMC1 071303Z 35005KT 04/04 A3029 RMK A01 T00420042  RH  100%=      5-min Rain = 0.02
KMC1 071304Z 34007KT 04/04 A3029 RMK A01 T00420042  RH  100%=      5-min Rain = 0.01
KMC1 071305Z 33007KT 04/04 A3028 RMK A01 T00420042  RH  100%=      5-min Rain = 0.01
KMC1 071306Z 33006KT 04/04 A3028 RMK A01 T00420042  RH  100%=      5-min Rain = 0.01
KMC1 071307Z 34007KT 04/04 A3028 RMK A01 T00420042  RH  100%=      5-min Rain = 0.01
KMC1 071308Z 34004KT 04/04 A3029 RMK A01 T00410041  RH  100%=      5-min Rain = 0
KMC1 071309Z 34003KT 04/04 A3029 RMK A01 T00410041  RH  100%=      5-min Rain = 0.01
KMC1 071310Z 35003KT 04/04 A3029 RMK A01 T00420041  RH  100%=      5-min Rain = 0.01
KMC1 071311Z 36005KT 04/04 A3029 RMK A01 T00410041  RH  100%=      5-min Rain = 0
KMC1 071312Z 36006KT 04/04 A3029 RMK A01 T00410041  RH  100%=      5-min Rain = 0
KMC1 071313Z 36006KT 04/04 A3029 RMK A01 T00420042  RH  100%=      5-min Rain = 0.01
KMC1 071314Z 35007KT 04/04 A3029 RMK A01 T00410041  RH  100%=      5-min Rain = 0
KMC1 071315Z 35007KT 04/04 A3029 RMK A01 T00410041  RH  100%=      5-min Rain = 0.01
KMC1 071316Z 00005KT 04/04 A3029 RMK A01 T00410041  RH  100%=      5-min Rain = 0.01
KMC1 071317Z 36005KT 04/04 A3029 RMK A01 T00410041  RH  100%=      5-min Rain = 0
KMC1 071318Z 01005KT 04/04 A3029 RMK A01 T00420041  RH  100%=      5-min Rain = 0
KMC1 071319Z 36005KT 04/04 A3029 RMK A01 T00410041  RH  100%=      5-min Rain = 0.01
KMC1 071320Z 35005KT 04/04 A3029 RMK A01 T00410041  RH  100%=      5-min Rain = 0
KMC1 071321Z 01004KT 04/04 A3029 RMK A01 T00410041  RH  100%=      5-min Rain = 0
KMC1 071322Z 01004KT 04/04 A3029 RMK A01 T00410041  RH  100%=      5-min Rain = 0.01
KMC1 071323Z 01005KT 04/04 A3029 RMK A01 T00410041  RH  100%=      5-min Rain = 0
KMC1 071324Z 02005KT 04/04 A3029 RMK A01 T00410041  RH  100%=      5-min Rain = 0
KMC1 071325Z 02005KT 04/04 A3029 RMK A01 T00410041  RH  100%=      5-min Rain = 0
KMC1 071326Z 02004KT 04/04 A3029 RMK A01 T00410041  RH  100%=      5-min Rain = 0.01
KMC1 071327Z 03004KT 04/04 A3029 RMK A01 T00410041  RH  100%=      5-min Rain = 0
KMC1 071328Z 03004KT 04/04 A3029 RMK A01 T00410041  RH  100%=      5-min Rain = 0
KMC1 071329Z 02004KT 04/04 A3029 RMK A01 T00410041  RH  100%=      5-min Rain = 0
KMC1 071330Z 02005KT 04/04 A3028 RMK A01 T00410041  RH  100%=      5-min Rain = 0
KMC1 071331Z 03005KT 04/04 A3028 RMK A01 T00410041  RH  100%=      5-min Rain = 0.01
KMC1 071332Z 03006KT 04/04 A3028 RMK A01 T00410041  RH  100%=      5-min Rain = 0
KMC1 071333Z 03006KT 04/04 A3029 RMK A01 T00410041  RH  100%=      5-min Rain = 0
KMC1 071334Z 03005KT 04/04 A3029 RMK A01 T00410041  RH  100%=      5-min Rain = 0
KMC1 071335Z 04004KT 04/04 A3028 RMK A01 T00410041  RH  100%=      5-min Rain = 0
KMC1 071336Z 04006KT 04/04 A3028 RMK A01 T00410041  RH  100%=      5-min Rain = 0
KMC1 071337Z 03005KT 04/04 A3028 RMK A01 T00410041  RH  100%=      5-min Rain = 0
KMC1 071338Z 03006KT 04/04 A3028 RMK A01 T00410041  RH  100%=      5-min Rain = 0.01
KMC1 071339Z 03006KT 04/04 A3028 RMK A01 T00410041  RH  100%=      5-min Rain = 0
KMC1 071340Z 02007KT 04/04 A3028 RMK A01 T00410041  RH  100%=      5-min Rain = 0
KMC1 071341Z 03007KT 04/04 A3028 RMK A01 T00410041  RH  100%=      5-min Rain = 0
KMC1 071342Z 03005KT 04/04 A3028 RMK A01 T00410041  RH  100%=      5-min Rain = 0
KMC1 071343Z 03007KT 04/04 A3028 RMK A01 T00410041  RH  100%=      5-min Rain = 0
KMC1 071344Z 03006KT 04/04 A3028 RMK A01 T00410041  RH  100%=      5-min Rain = 0
KMC1 071345Z 03005KT 04/04 A3028 RMK A01 T00410041  RH  100%=      5-min Rain = 0
KMC1 071346Z 04004KT 04/04 A3028 RMK A01 T00410041  RH  100%=      5-min Rain = 0
KMC1 071347Z 03004KT 04/04 A3028 RMK A01 T00410041  RH  100%=      5-min Rain = 0
KMC1 071348Z 05004KT 04/04 A3028 RMK A01 T00410041  RH  100%=      5-min Rain = 0
KMC1 071349Z 03004KT 04/04 A3028 RMK A01 T00410041  RH  100%=      5-min Rain = 0
KMC1 071350Z 04004KT 04/04 A3028 RMK A01 T00410041  RH  100%=      5-min Rain = 0.01
KMC1 071351Z 03006KT 04/04 A3028 RMK A01 T00410041  RH  100%=      5-min Rain = 0
KMC1 071352Z 05005KT 04/04 A3028 RMK A01 T00410041  RH  100%=      5-min Rain = 0
KMC1 071353Z 03005KT 04/04 A3028 RMK A01 T00410041  RH  100%=      5-min Rain = 0
KMC1 071354Z 02006KT 04/04 A3028 RMK A01 T00410041  RH  100%=      5-min Rain = 0
KMC1 071355Z 02006KT 04/04 A3028 RMK A01 T00410041  RH  100%=      5-min Rain = 0
KMC1 071356Z 03004KT 04/04 A3028 RMK A01 T00400040  RH  100%=      5-min Rain = 0
KMC1 071357Z 04005KT 04/04 A3028 RMK A01 T00410041  RH  100%=      5-min Rain = 0
KMC1 071358Z 04005KT 04/04 A3028 RMK A01 T00410041  RH  100%=      5-min Rain = 0
KMC1 071359Z 03005KT 04/04 A3028 RMK A01 T00410041  RH  100%=      5-min Rain = 0
KMC1 071400Z 04004KT 04/04 A3028 RMK A01 T00410041  RH  100%=      5-min Rain = 0
KMC1 071401Z 03004KT 04/04 A3028 RMK A01 T00410041  RH  100%=      5-min Rain = 0
KMC1 071402Z 03004KT 04/04 A3028 RMK A01 T00410041  RH  100%=      5-min Rain = 0
KMC1 071403Z 03004KT 04/04 A3028 RMK A01 T00410041  RH  100%=      5-min Rain = 0
KMC1 071404Z 03005KT 04/04 A3028 RMK A01 T00410041  RH  100%=      5-min Rain = 0
KMC1 071405Z 03007KT 04/04 A3028 RMK A01 T00410041  RH  100%=      5-min Rain = 0
KMC1 071406Z 03006KT 04/04 A3028 RMK A01 T00410041  RH  100%=      5-min Rain = 0
KMC1 071407Z 03007KT 04/04 A3028 RMK A01 T00410041  RH  100%=      5-min Rain = 0
KMC1 071408Z 02006KT 04/04 A3028 RMK A01 T00410041  RH  100%=      5-min Rain = 0.01
KMC1 071409Z 02005KT 04/04 A3028 RMK A01 T00410041  RH  100%=      5-min Rain = 0
KMC1 071410Z 03006KT 04/04 A3028 RMK A01 T00410041  RH  100%=      5-min Rain = 0
KMC1 071411Z 04005KT 04/04 A3028 RMK A01 T00410041  RH  100%=      5-min Rain = 0
KMC1 071412Z 04007KT 04/04 A3028 RMK A01 T00410041  RH  100%=      5-min Rain = 0
KMC1 071413Z 04005KT 04/04 A3028 RMK A01 T00410041  RH  100%=      5-min Rain = 0
KMC1 071414Z 05003KT 04/04 A3028 RMK A01 T00410041  RH  100%=      5-min Rain = 0
KMC1 071415Z 05003KT 04/04 A3028 RMK A01 T00410041  RH  100%=      5-min Rain = 0
KMC1 071416Z 05003KT 04/04 A3028 RMK A01 T00410041  RH  100%=      5-min Rain = 0
KMC1 071417Z 06002KT 04/04 A3028 RMK A01 T00420042  RH  100%=      5-min Rain = 0
KMC1 071418Z 04004KT 04/04 A3028 RMK A01 T00420042  RH  100%=      5-min Rain = 0
KMC1 071419Z 05004KT 04/04 A3028 RMK A01 T00420042  RH  100%=      5-min Rain = 0.01
KMC1 071420Z 05003KT 04/04 A3028 RMK A01 T00420042  RH  100%=      5-min Rain = 0
KMC1 071421Z 06003KT 04/04 A3028 RMK A01 T00420042  RH  100%=      5-min Rain = 0
KMC1 071422Z 06003KT 04/04 A3028 RMK A01 T00420042  RH  100%=      5-min Rain = 0
KMC1 071423Z 06005KT 04/04 A3028 RMK A01 T00420042  RH  100%=      5-min Rain = 0
KMC1 071424Z 06005KT 04/04 A3028 RMK A01 T00420042  RH  100%=      5-min Rain = 0
KMC1 071425Z 04005KT 04/04 A3028 RMK A01 T00420042  RH  100%=      5-min Rain = 0
KMC1 071426Z 04006KT 04/04 A3028 RMK A01 T00420042  RH  100%=      5-min Rain = 0
KMC1 071427Z 04005KT 04/04 A3028 RMK A01 T00420042  RH  100%=      5-min Rain = 0
KMC1 071428Z 04004KT 04/04 A3028 RMK A01 T00420042  RH  100%=      5-min Rain = 0
KMC1 071429Z 04002KT 04/04 A3028 RMK A01 T00420042  RH  100%=      5-min Rain = 0.01
KMC1 071430Z 05004KT 04/04 A3028 RMK A01 T00420042  RH  100%=      5-min Rain = 0
KMC1 071431Z 04003KT 04/04 A3028 RMK A01 T00420042  RH  100%=      5-min Rain = 0
KMC1 071432Z 04004KT 04/04 A3028 RMK A01 T00420042  RH  100%=      5-min Rain = 0
KMC1 071433Z 04005KT 04/04 A3028 RMK A01 T00420042  RH  100%=      5-min Rain = 0
KMC1 071434Z 03005KT 04/04 A3028 RMK A01 T00420042  RH  100%=      5-min Rain = 0
KMC1 071435Z 03006KT 04/04 A3028 RMK A01 T00420042  RH  100%=      5-min Rain = 0
KMC1 071436Z 04006KT 04/04 A3028 RMK A01 T00420042  RH  100%=      5-min Rain = 0
KMC1 071437Z 04004KT 04/04 A3029 RMK A01 T00420042  RH  100%=      5-min Rain = 0.01
KMC1 071438Z 04004KT 04/04 A3029 RMK A01 T00410041  RH  100%=      5-min Rain = 0
KMC1 071439Z 04004KT 04/04 A3029 RMK A01 T00420042  RH  100%=      5-min Rain = 0
KMC1 071440Z 04004KT 04/04 A3029 RMK A01 T00420042  RH  100%=      5-min Rain = 0
KMC1 071441Z 04003KT 04/04 A3029 RMK A01 T00420042  RH  100%=      5-min Rain = 0
KMC1 071442Z 05005KT 04/04 A3029 RMK A01 T00420042  RH  100%=      5-min Rain = 0
KMC1 071443Z 04007KT 04/04 A3029 RMK A01 T00420042  RH  100%=      5-min Rain = 0.01
KMC1 071444Z 05006KT 04/04 A3029 RMK A01 T00420041  RH  100%=      5-min Rain = 0
KMC1 071445Z 05005KT 04/04 A3029 RMK A01 T00410041  RH  100%=      5-min Rain = 0.01
KMC1 071446Z 06003KT 04/04 A303 RMK A01 T00420041  RH  100%=      5-min Rain = 0
KMC1 071447Z 06002KT 04/04 A303 RMK A01 T00410041  RH  100%=      5-min Rain = 0
KMC1 071448Z 07003KT 04/04 A303 RMK A01 T00410041  RH  100%=      5-min Rain = 0.01
KMC1 071449Z 07003KT 04/04 A303 RMK A01 T00410041  RH  100%=      5-min Rain = 0
KMC1 071450Z 06003KT 04/04 A303 RMK A01 T00420042  RH  100%=      5-min Rain = 0
KMC1 071451Z 05004KT 04/04 A303 RMK A01 T00410041  RH  100%=      5-min Rain = 0
KMC1 071452Z 04004KT 04/04 A303 RMK A01 T00410041  RH  100%=      5-min Rain = 0.01
KMC1 071453Z 05003KT 04/04 A303 RMK A01 T00410041  RH  100%=      5-min Rain = 0
KMC1 071454Z 04004KT 04/04 A303 RMK A01 T00420042  RH  100%=      5-min Rain = 0
KMC1 071455Z 05004KT 04/04 A303 RMK A01 T00410041  RH  100%=      5-min Rain = 0.01
KMC1 071456Z 04004KT 04/04 A303 RMK A01 T00410041  RH  100%=      5-min Rain = 0
KMC1 071457Z 04005KT 04/04 A303 RMK A01 T00410041  RH  100%=      5-min Rain = 0.01
KMC1 071458Z 04005KT 04/04 A303 RMK A01 T00410041  RH  100%=      5-min Rain = 0.01
KMC1 071459Z 04004KT 04/04 A303 RMK A01 T00420041  RH  100%=      5-min Rain = 0.01
KMC1 071500Z 04003KT 04/04 A303 RMK A01 T00410041  RH  100%=      5-min Rain = 0
KMC1 071501Z 04003KT 04/04 A3031 RMK A01 T00410041  RH  100%=      5-min Rain = 0
KMC1 071502Z 04003KT 04/04 A303 RMK A01 T00410041  RH  100%=      5-min Rain = 0.01
KMC1 071503Z 04003KT 04/04 A303 RMK A01 T00410041  RH  100%=      5-min Rain = 0
KMC1 071504Z 04003KT 04/04 A303 RMK A01 T00410041  RH  100%=      5-min Rain = 0
KMC1 071505Z 04003KT 04/04 A303 RMK A01 T00410041  RH  100%=      5-min Rain = 0
KMC1 071506Z 03004KT 04/04 A303 RMK A01 T00410041  RH  100%=      5-min Rain = 0.01
KMC1 071507Z 03004KT 04/04 A303 RMK A01 T00420041  RH  100%=      5-min Rain = 0
KMC1 071508Z 02003KT 04/04 A303 RMK A01 T00410041  RH  100%=      5-min Rain = 0
KMC1 071509Z 02004KT 04/04 A303 RMK A01 T00420042  RH  100%=      5-min Rain = 0
KMC1 071510Z 02004KT 04/04 A303 RMK A01 T00420042  RH  100%=      5-min Rain = 0
KMC1 071511Z 02004KT 04/04 A303 RMK A01 T00420042  RH  100%=      5-min Rain = 0
KMC1 071512Z 02005KT 04/04 A303 RMK A01 T00420042  RH  100%=      5-min Rain = 0.01
KMC1 071513Z 01005KT 04/04 A303 RMK A01 T00420042  RH  100%=      5-min Rain = 0
KMC1 071514Z 01006KT 04/04 A303 RMK A01 T00420042  RH  100%=      5-min Rain = 0
KMC1 071515Z 01005KT 04/04 A303 RMK A01 T00420042  RH  100%=      5-min Rain = 0
KMC1 071516Z 01006KT 04/04 A303 RMK A01 T00420042  RH  100%=      5-min Rain = 0
KMC1 071517Z 02005KT 04/04 A303 RMK A01 T00420042  RH  100%=      5-min Rain = 0
KMC1 071518Z 01005KT 04/04 A303 RMK A01 T00430043  RH  100%=      5-min Rain = 0
KMC1 071519Z 01005KT 04/04 A303 RMK A01 T00430043  RH  100%=      5-min Rain = 0
KMC1 071520Z 01005KT 04/04 A303 RMK A01 T00430043  RH  100%=      5-min Rain = 0
KMC1 071521Z 01005KT 04/04 A303 RMK A01 T00430043  RH  100%=      5-min Rain = 0.01
KMC1 071522Z 01005KT 04/04 A303 RMK A01 T00430043  RH  100%=      5-min Rain = 0
KMC1 071523Z 00006KT 04/04 A303 RMK A01 T00430043  RH  100%=      5-min Rain = 0
KMC1 071524Z 01005KT 04/04 A303 RMK A01 T00430043  RH  100%=      5-min Rain = 0
KMC1 071525Z 01006KT 04/04 A303 RMK A01 T00430042  RH  100%=      5-min Rain = 0
KMC1 071526Z 01005KT 04/04 A303 RMK A01 T00430043  RH  100%=      5-min Rain = 0
KMC1 071527Z 01005KT 04/04 A3031 RMK A01 T00430043  RH  100%=      5-min Rain = 0
KMC1 071528Z 36004KT 04/04 A3031 RMK A01 T00430043  RH  100%=      5-min Rain = 0
KMC1 071529Z 00005KT 04/04 A3031 RMK A01 T00430043  RH  100%=      5-min Rain = 0.01
KMC1 071530Z 00004KT 04/04 A3031 RMK A01 T00430042  RH  100%=      5-min Rain = 0
KMC1 071531Z 01004KT 04/04 A3031 RMK A01 T00430043  RH  100%=      5-min Rain = 0
KMC1 071532Z 01004KT 04/04 A3031 RMK A01 T00430043  RH  100%=      5-min Rain = 0
KMC1 071533Z 36003KT 04/04 A3031 RMK A01 T00430043  RH  100%=      5-min Rain = 0
KMC1 071534Z 35004KT 04/04 A3031 RMK A01 T00440044  RH  100%=      5-min Rain = 0
KMC1 071535Z 01005KT 04/04 A3031 RMK A01 T00440044  RH  100%=      5-min Rain = 0.01
KMC1 071536Z 01003KT 04/04 A3031 RMK A01 T00440044  RH  100%=      5-min Rain = 0
KMC1 071537Z 01005KT 04/04 A3031 RMK A01 T00440044  RH  100%=      5-min Rain = 0
KMC1 071538Z 01005KT 04/04 A3031 RMK A01 T00440044  RH  100%=      5-min Rain = 0
KMC1 071539Z 01004KT 04/04 A3031 RMK A01 T00440044  RH  100%=      5-min Rain = 0
KMC1 071540Z 01004KT 04/04 A3031 RMK A01 T00440044  RH  100%=      5-min Rain = 0
KMC1 071541Z 01004KT 04/04 A3031 RMK A01 T00440044  RH  100%=      5-min Rain = 0.01
KMC1 071542Z 01005KT 04/04 A3031 RMK A01 T00440044  RH  100%=      5-min Rain = 0
KMC1 071543Z 02006KT 04/04 A3031 RMK A01 T00440044  RH  100%=      5-min Rain = 0
KMC1 071544Z 01006KT 04/04 A3031 RMK A01 T00440044  RH  100%=      5-min Rain = 0
KMC1 071545Z 01006KT 04/04 A3031 RMK A01 T00440044  RH  100%=      5-min Rain = 0
KMC1 071546Z 01004KT 04/04 A3031 RMK A01 T00440044  RH  100%=      5-min Rain = 0.01
KMC1 071547Z 01004KT 04/04 A3031 RMK A01 T00440044  RH  100%=      5-min Rain = 0
KMC1 071548Z 02003KT 04/04 A3031 RMK A01 T00440044  RH  100%=      5-min Rain = 0
KMC1 071549Z 02003KT 04/04 A3031 RMK A01 T00440044  RH  100%=      5-min Rain = 0
KMC1 071550Z 01004KT 04/04 A3031 RMK A01 T00440044  RH  100%=      5-min Rain = 0
KMC1 071551Z 02005KT 04/04 A3031 RMK A01 T00440044  RH  100%=      5-min Rain = 0
KMC1 071552Z 02004KT 05/05 A3031 RMK A01 T00450045  RH  100%=      5-min Rain = 0.01
KMC1 071553Z 02004KT 04/04 A3031 RMK A01 T00440044  RH  100%=      5-min Rain = 0
KMC1 071554Z 02005KT 04/04 A3031 RMK A01 T00440044  RH  100%=      5-min Rain = 0
KMC1 071555Z 01004KT 04/04 A3031 RMK A01 T00440044  RH  100%=      5-min Rain = 0
KMC1 071556Z 02006KT 04/04 A3031 RMK A01 T00440044  RH  100%=      5-min Rain = 0
KMC1 071557Z 02006KT 04/04 A3031 RMK A01 T00440044  RH  100%=      5-min Rain = 0
KMC1 071558Z 02005KT 04/04 A3031 RMK A01 T00440044  RH  100%=      5-min Rain = 0
KMC1 071559Z 01004KT 04/04 A3031 RMK A01 T00440044  RH  100%=      5-min Rain = 0
KMC1 071600Z 01004KT 04/04 A3031 RMK A01 T00440044  RH  100%=      5-min Rain = 0.01
KMC1 071601Z 00003KT 05/05 A3031 RMK A01 T00450045  RH  100%=      5-min Rain = 0
KMC1 071602Z 01004KT 05/05 A3031 RMK A01 T00450045  RH  100%=      5-min Rain = 0
KMC1 071603Z 36005KT 05/05 A3031 RMK A01 T00450045  RH  100%=      5-min Rain = 0
KMC1 071604Z 36005KT 05/05 A3031 RMK A01 T00450045  RH  100%=      5-min Rain = 0
KMC1 071605Z 00004KT 05/05 A3031 RMK A01 T00450045  RH  100%=      5-min Rain = 0
KMC1 071606Z 02004KT 05/05 A3031 RMK A01 T00450045  RH  100%=      5-min Rain = 0.01
KMC1 071607Z 01006KT 05/05 A3031 RMK A01 T00450045  RH  100%=      5-min Rain = 0
KMC1 071608Z 01006KT 05/05 A3031 RMK A01 T00450045  RH  100%=      5-min Rain = 0
KMC1 071609Z 02005KT 04/04 A3031 RMK A01 T00440044  RH  100%=      5-min Rain = 0
KMC1 071610Z 02006KT 04/04 A3031 RMK A01 T00440044  RH  100%=      5-min Rain = 0
KMC1 071611Z 02006KT 05/05 A3031 RMK A01 T00450045  RH  100%=      5-min Rain = 0.01
KMC1 071612Z 02005KT 05/04 A3031 RMK A01 T00450044  RH  100%=      5-min Rain = 0
KMC1 071613Z 01005KT 05/04 A3031 RMK A01 T00450044  RH  100%=      5-min Rain = 0
KMC1 071614Z 01007KT 05/05 A3031 RMK A01 T00450045  RH  100%=      5-min Rain = 0
KMC1 071615Z 00006KT 05/05 A3031 RMK A01 T00450045  RH  100%=      5-min Rain = 0
KMC1 071616Z 01006KT 05/05 A3031 RMK A01 T00450045  RH  100%=      5-min Rain = 0.01
KMC1 071617Z 01005KT 05/04 A3031 RMK A01 T00450044  RH  100%=      5-min Rain = 0
KMC1 071618Z 36005KT 05/05 A3031 RMK A01 T00450045  RH  100%=      5-min Rain = 0
KMC1 071619Z 00006KT 05/05 A3031 RMK A01 T00450045  RH  100%=      5-min Rain = 0
KMC1 071620Z 36006KT 05/05 A3031 RMK A01 T00450045  RH  100%=      5-min Rain = 0
KMC1 071621Z 35005KT 05/05 A3031 RMK A01 T00450045  RH  100%=      5-min Rain = 0.01
KMC1 071622Z 35006KT 05/05 A3031 RMK A01 T00450045  RH  100%=      5-min Rain = 0
KMC1 071623Z 35006KT 05/05 A3031 RMK A01 T00460045  RH  100%=      5-min Rain = 0
KMC1 071624Z 35006KT 05/05 A3031 RMK A01 T00460046  RH  100%=      5-min Rain = 0
KMC1 071625Z 00007KT 05/05 A3031 RMK A01 T00460046  RH  100%=      5-min Rain = 0
KMC1 071626Z 36006KT 05/05 A3031 RMK A01 T00460046  RH  100%=      5-min Rain = 0.01
KMC1 071627Z 01007KT 05/05 A3031 RMK A01 T00460046  RH  100%=      5-min Rain = 0
KMC1 071628Z 36006KT 05/05 A3031 RMK A01 T00450045  RH  100%=      5-min Rain = 0
KMC1 071629Z 36006KT 05/05 A3031 RMK A01 T00450045  RH  100%=      5-min Rain = 0
KMC1 071630Z 36007KT 05/05 A3031 RMK A01 T00450045  RH  100%=      5-min Rain = 0
KMC1 071631Z 00007KT 05/05 A3031 RMK A01 T00450045  RH  100%=      5-min Rain = 0.01
KMC1 071632Z 36006KT 05/05 A303 RMK A01 T00450045  RH  100%=      5-min Rain = 0
KMC1 071633Z 01005KT 05/05 A303 RMK A01 T00450045  RH  100%=      5-min Rain = 0
KMC1 071634Z 01005KT 05/05 A303 RMK A01 T00460046  RH  100%=      5-min Rain = 0
KMC1 071635Z 02007KT 05/05 A303 RMK A01 T00460046  RH  100%=      5-min Rain = 0
KMC1 071636Z 02006KT 05/05 A303 RMK A01 T00460046  RH  100%=      5-min Rain = 0
KMC1 071637Z 02007KT 05/05 A303 RMK A01 T00450045  RH  100%=      5-min Rain = 0.01
KMC1 071638Z 02006KT 05/05 A303 RMK A01 T00450045  RH  100%=      5-min Rain = 0
KMC1 071639Z 02005KT 05/05 A303 RMK A01 T00450045  RH  100%=      5-min Rain = 0
KMC1 071640Z 01004KT 05/05 A303 RMK A01 T00460046  RH  100%=      5-min Rain = 0
KMC1 071641Z 01005KT 05/05 A303 RMK A01 T00460046  RH  100%=      5-min Rain = 0
KMC1 071642Z 02004KT 05/05 A303 RMK A01 T00460046  RH  100%=      5-min Rain = 0.01
KMC1 071643Z 01004KT 05/05 A303 RMK A01 T00450045  RH  100%=      5-min Rain = 0
KMC1 071644Z 02005KT 05/05 A303 RMK A01 T00450045  RH  100%=      5-min Rain = 0
KMC1 071645Z 02005KT 05/05 A303 RMK A01 T00460046  RH  100%=      5-min Rain = 0
KMC1 071646Z 01004KT 05/05 A303 RMK A01 T00460046  RH  100%=      5-min Rain = 0
KMC1 071647Z 36006KT 05/05 A303 RMK A01 T00460046  RH  100%=      5-min Rain = 0.01
KMC1 071648Z 36006KT 05/05 A303 RMK A01 T00460046  RH  100%=      5-min Rain = 0
KMC1 071649Z 00006KT 05/05 A303 RMK A01 T00460046  RH  100%=      5-min Rain = 0
KMC1 071650Z 01005KT 05/05 A3029 RMK A01 T00460046  RH  100%=      5-min Rain = 0
KMC1 071651Z 01006KT 05/05 A3029 RMK A01 T00460046  RH  100%=      5-min Rain = 0
KMC1 071652Z 01007KT 05/05 A3029 RMK A01 T00460046  RH  100%=      5-min Rain = 0
KMC1 071653Z 00007KT 05/05 A3029 RMK A01 T00450045  RH  100%=      5-min Rain = 0.01
KMC1 071654Z 36006KT 05/05 A3029 RMK A01 T00450045  RH  100%=      5-min Rain = 0
KMC1 071655Z 00006KT 05/05 A3029 RMK A01 T00450045  RH  100%=      5-min Rain = 0
KMC1 071656Z 36007KT 05/05 A3029 RMK A01 T00450045  RH  100%=      5-min Rain = 0
KMC1 071657Z 00008KT 05/05 A3029 RMK A01 T00450045  RH  100%=      5-min Rain = 0.01
KMC1 071658Z 01008KT 05/05 A3029 RMK A01 T00450045  RH  100%=      5-min Rain = 0
KMC1 071659Z 01007KT 05/05 A3029 RMK A01 T00450045  RH  100%=      5-min Rain = 0
KMC1 071700Z 01007KT 05/05 A3028 RMK A01 T00450045  RH  100%=      5-min Rain = 0
KMC1 071701Z 01008KT 05/05 A3028 RMK A01 T00450045  RH  100%=      5-min Rain = 0.01
KMC1 071702Z 01009KT 05/05 A3028 RMK A01 T00450045  RH  100%=      5-min Rain = 0
KMC1 071703Z 01007KT 05/05 A3028 RMK A01 T00450045  RH  100%=      5-min Rain = 0
KMC1 071704Z 01007KT 05/05 A3028 RMK A01 T00450045  RH  100%=      5-min Rain = 0
KMC1 071705Z 02008KT 05/05 A3028 RMK A01 T00450045  RH  100%=      5-min Rain = 0
KMC1 071706Z 02008KT 05/05 A3028 RMK A01 T00450045  RH  100%=      5-min Rain = 0.01
KMC1 071707Z 01006KT 05/05 A3028 RMK A01 T00450045  RH  100%=      5-min Rain = 0
KMC1 071708Z 02005KT 05/05 A3028 RMK A01 T00450045  RH  100%=      5-min Rain = 0
KMC1 071709Z 02004KT 05/05 A3028 RMK A01 T00460046  RH  100%=      5-min Rain = 0
KMC1 071710Z 02006KT 05/05 A3028 RMK A01 T00460046  RH  100%=      5-min Rain = 0.01
KMC1 071711Z 02005KT 05/05 A3028 RMK A01 T00460046  RH  100%=      5-min Rain = 0
KMC1 071712Z 01005KT 05/05 A3028 RMK A01 T00460046  RH  100%=      5-min Rain = 0
KMC1 071713Z 02004KT 05/05 A3028 RMK A01 T00460046  RH  100%=      5-min Rain = 0
KMC1 071714Z 01005KT 05/05 A3028 RMK A01 T00460046  RH  100%=      5-min Rain = 0
KMC1 071715Z 01005KT 05/05 A3028 RMK A01 T00460046  RH  100%=      5-min Rain = 0.01
KMC1 071716Z 01005KT 05/05 A3028 RMK A01 T00460046  RH  100%=      5-min Rain = 0
KMC1 071717Z 01005KT 05/05 A3027 RMK A01 T00460046  RH  100%=      5-min Rain = 0
KMC1 071718Z 01005KT 05/05 A3027 RMK A01 T00460046  RH  100%=      5-min Rain = 0
KMC1 071719Z 01006KT 05/05 A3027 RMK A01 T00460046  RH  100%=      5-min Rain = 0
KMC1 071720Z 01006KT 05/05 A3026 RMK A01 T00470047  RH  100%=      5-min Rain = 0
KMC1 071721Z 01007KT 05/05 A3026 RMK A01 T00480048  RH  100%=      5-min Rain = 0
KMC1 071722Z 00007KT 05/05 A3026 RMK A01 T00470047  RH  100%=      5-min Rain = 0
KMC1 071723Z 01007KT 05/05 A3026 RMK A01 T00460046  RH  100%=      5-min Rain = 0.01
KMC1 071724Z 00006KT 05/05 A3026 RMK A01 T00460046  RH  100%=      5-min Rain = 0
KMC1 071725Z 35005KT 05/05 A3026 RMK A01 T00460046  RH  100%=      5-min Rain = 0
KMC1 071726Z 00008KT 05/05 A3026 RMK A01 T00470047  RH  100%=      5-min Rain = 0
KMC1 071727Z 36008KT 05/05 A3026 RMK A01 T00470047  RH  100%=      5-min Rain = 0
KMC1 071728Z 00007KT 05/05 A3026 RMK A01 T00460046  RH  100%=      5-min Rain = 0
KMC1 071729Z 01007KT 05/05 A3026 RMK A01 T00460046  RH  100%=      5-min Rain = 0
KMC1 071730Z 01008KT 05/05 A3026 RMK A01 T00460046  RH  100%=      5-min Rain = 0
KMC1 071731Z 01009KT 05/05 A3025 RMK A01 T00470047  RH  100%=      5-min Rain = 0
KMC1 071732Z 01008KT 05/05 A3025 RMK A01 T00460046  RH  100%=      5-min Rain = 0.01
KMC1 071733Z 03007KT 05/05 A3025 RMK A01 T00470046  RH  100%=      5-min Rain = 0
KMC1 071734Z 02009KT 05/05 A3025 RMK A01 T00470047  RH  100%=      5-min Rain = 0
KMC1 071735Z 03009KT 05/05 A3026 RMK A01 T00470047  RH  100%=      5-min Rain = 0
KMC1 071736Z 03008KT 05/05 A3026 RMK A01 T00470047  RH  100%=      5-min Rain = 0
KMC1 071737Z 04009KT 05/05 A3026 RMK A01 T00470047  RH  100%=      5-min Rain = 0
KMC1 071738Z 04007KT 05/05 A3026 RMK A01 T00470047  RH  100%=      5-min Rain = 0
KMC1 071739Z 04006KT 05/05 A3025 RMK A01 T00470047  RH  100%=      5-min Rain = 0
KMC1 071740Z 04007KT 05/05 A3025 RMK A01 T00470047  RH  100%=      5-min Rain = 0
KMC1 071741Z 04008KT 05/05 A3025 RMK A01 T00480048  RH  100%=      5-min Rain = 0
KMC1 071742Z 04007KT 05/05 A3025 RMK A01 T00470047  RH  100%=      5-min Rain = 0
KMC1 071743Z 03007KT 05/05 A3025 RMK A01 T00470047  RH  100%=      5-min Rain = 0
KMC1 071744Z 03006KT 05/05 A3025 RMK A01 T00470047  RH  100%=      5-min Rain = 0
KMC1 071745Z 03008KT 05/05 A3025 RMK A01 T00470047  RH  100%=      5-min Rain = 0
KMC1 071746Z 04005KT 05/05 A3025 RMK A01 T00470047  RH  100%=      5-min Rain = 0
KMC1 071747Z 05006KT 05/05 A3025 RMK A01 T00470047  RH  100%=      5-min Rain = 0
KMC1 071748Z 04008KT 05/05 A3025 RMK A01 T00480048  RH  100%=      5-min Rain = 0
KMC1 071749Z 04008KT 05/05 A3025 RMK A01 T00480048  RH  100%=      5-min Rain = 0
KMC1 071750Z 04008KT 05/05 A3025 RMK A01 T00470047  RH  100%=      5-min Rain = 0
KMC1 071751Z 04007KT 05/05 A3025 RMK A01 T00470047  RH  100%=      5-min Rain = 0
KMC1 071752Z 04007KT 05/05 A3024 RMK A01 T00470047  RH  100%=      5-min Rain = 0
KMC1 071753Z 04009KT 05/05 A3024 RMK A01 T00470047  RH  100%=      5-min Rain = 0
KMC1 071754Z 04009KT 05/05 A3024 RMK A01 T00470047  RH  100%=      5-min Rain = 0
KMC1 071755Z 04008KT 05/05 A3024 RMK A01 T00470047  RH  100%=      5-min Rain = 0.01
KMC1 071756Z 04006KT 05/05 A3024 RMK A01 T00470047  RH  100%=      5-min Rain = 0
KMC1 071757Z 04005KT 05/05 A3024 RMK A01 T00470047  RH  100%=      5-min Rain = 0
KMC1 071758Z 04005KT 05/05 A3024 RMK A01 T00480048  RH  100%=      5-min Rain = 0
KMC1 071759Z 04007KT 05/05 A3023 RMK A01 T00490049  RH  100%=      5-min Rain = 0
KMC1 071800Z 04008KT 05/05 A3023 RMK A01 T00490049  RH  100%=      5-min Rain = 0
KMC1 071801Z 04006KT 05/05 A3023 RMK A01 T00490049  RH  100%=      5-min Rain = 0
KMC1 071802Z 04008KT 05/05 A3023 RMK A01 T00500049  RH  100%=      5-min Rain = 0
KMC1 071803Z 05008KT 05/05 A3023 RMK A01 T00500050  RH  100%=      5-min Rain = 0
KMC1 071804Z 05005KT 05/05 A3023 RMK A01 T00500050  RH  100%=      5-min Rain = 0
KMC1 071805Z 05006KT 05/05 A3024 RMK A01 T00500050  RH  100%=      5-min Rain = 0
KMC1 071806Z 05006KT 05/05 A3024 RMK A01 T00500050  RH  100%=      5-min Rain = 0
KMC1 071807Z 06004KT 05/05 A3024 RMK A01 T00500050  RH  100%=      5-min Rain = 0
KMC1 071808Z 09002KT 05/05 A3025 RMK A01 T00490049  RH  100%=      5-min Rain = 0
KMC1 071809Z 09003KT 05/05 A3025 RMK A01 T00490049  RH  100%=      5-min Rain = 0
KMC1 071810Z 09006KT 05/05 A3025 RMK A01 T00490049  RH  100%=      5-min Rain = 0.01
KMC1 071811Z 09005KT 05/05 A3025 RMK A01 T00480048  RH  100%=      5-min Rain = 0
KMC1 071812Z 08004KT 05/05 A3025 RMK A01 T00480048  RH  100%=      5-min Rain = 0
KMC1 071813Z 09005KT 05/05 A3025 RMK A01 T00480048  RH  100%=      5-min Rain = 0
KMC1 071814Z 07006KT 05/05 A3024 RMK A01 T00480048  RH  100%=      5-min Rain = 0
KMC1 071815Z 05007KT 05/05 A3023 RMK A01 T00480048  RH  100%=      5-min Rain = 0
KMC1 071816Z 04009KT 05/05 A3022 RMK A01 T00480048  RH  100%=      5-min Rain = 0
KMC1 071817Z 04010KT 05/05 A3021 RMK A01 T00480048  RH  100%=      5-min Rain = 0
KMC1 071818Z 03011KT 05/05 A302 RMK A01 T00480048  RH  100%=      5-min Rain = 0
KMC1 071819Z 03009KT 05/05 A302 RMK A01 T00490048  RH  100%=      5-min Rain = 0
KMC1 071820Z 04011KT 05/05 A302 RMK A01 T00490049  RH  100%=      5-min Rain = 0.01
KMC1 071821Z 04008KT 05/05 A302 RMK A01 T00490049  RH  100%=      5-min Rain = 0
KMC1 071822Z 04008KT 05/05 A3021 RMK A01 T00490049  RH  100%=      5-min Rain = 0
KMC1 071823Z 04007KT 05/05 A3021 RMK A01 T00490049  RH  100%=      5-min Rain = 0
KMC1 071824Z 05006KT 05/05 A3021 RMK A01 T00490049  RH  100%=      5-min Rain = 0
KMC1 071825Z 05006KT 05/05 A3022 RMK A01 T00490049  RH  100%=      5-min Rain = 0
KMC1 071826Z 04006KT 05/05 A3022 RMK A01 T00490049  RH  100%=      5-min Rain = 0
KMC1 071827Z 03006KT 05/05 A3022 RMK A01 T00490049  RH  100%=      5-min Rain = 0
KMC1 071828Z 04007KT 05/05 A3022 RMK A01 T00490049  RH  100%=      5-min Rain = 0
KMC1 071829Z 04005KT 05/05 A3022 RMK A01 T00480048  RH  100%=      5-min Rain = 0
KMC1 071830Z 05003KT 05/05 A3022 RMK A01 T00480048  RH  100%=      5-min Rain = 0
KMC1 071831Z 05005KT 05/05 A3022 RMK A01 T00480048  RH  100%=      5-min Rain = 0.01
KMC1 071832Z 05004KT 05/05 A3022 RMK A01 T00480048  RH  100%=      5-min Rain = 0
KMC1 071833Z 07003KT 05/05 A3023 RMK A01 T00480048  RH  100%=      5-min Rain = 0
KMC1 071834Z 06005KT 05/05 A3023 RMK A01 T00480048  RH  100%=      5-min Rain = 0
KMC1 071835Z 06004KT 05/05 A3022 RMK A01 T00490049  RH  100%=      5-min Rain = 0
KMC1 071836Z 06004KT 05/05 A3022 RMK A01 T00490049  RH  100%=      5-min Rain = 0
KMC1 071837Z 05005KT 05/05 A3022 RMK A01 T00490049  RH  100%=      5-min Rain = 0
KMC1 071838Z 04007KT 05/05 A3021 RMK A01 T00490048  RH  100%=      5-min Rain = 0
KMC1 071839Z 03007KT 05/05 A3021 RMK A01 T00490049  RH  100%=      5-min Rain = 0.01
KMC1 071840Z 03007KT 05/05 A302 RMK A01 T00490049  RH  100%=      5-min Rain = 0
KMC1 071841Z 03007KT 05/05 A302 RMK A01 T00490049  RH  100%=      5-min Rain = 0
KMC1 071842Z 04007G12KT 05/05 A302 RMK A01 T00490049  RH  100%=      5-min Rain = 0
KMC1 071843Z 04009KT 05/05 A302 RMK A01 T00490049  RH  100%=      5-min Rain = 0
KMC1 071844Z 04007KT 05/05 A302 RMK A01 T00490049  RH  100%=      5-min Rain = 0
KMC1 071845Z 04007KT 05/05 A302 RMK A01 T00490049  RH  100%=      5-min Rain = 0.01
KMC1 071846Z 05008KT 05/05 A302 RMK A01 T00490049  RH  100%=      5-min Rain = 0
KMC1 071847Z 05008KT 05/05 A302 RMK A01 T00490049  RH  100%=      5-min Rain = 0
KMC1 071848Z 05007KT 05/05 A302 RMK A01 T00490049  RH  100%=      5-min Rain = 0
KMC1 071849Z 04006KT 05/05 A302 RMK A01 T00490049  RH  100%=      5-min Rain = 0
KMC1 071850Z 04006KT 05/05 A302 RMK A01 T00500050  RH  100%=      5-min Rain = 0
KMC1 071851Z 04006KT 05/05 A302 RMK A01 T00500050  RH  100%=      5-min Rain = 0
KMC1 071852Z 03008KT 05/05 A302 RMK A01 T00500050  RH  100%=      5-min Rain = 0
KMC1 071853Z 04009KT 05/05 A302 RMK A01 T00510051  RH  100%=      5-min Rain = 0
KMC1 071854Z 04010KT 05/05 A302 RMK A01 T00510051  RH  100%=      5-min Rain = 0
KMC1 071855Z 04009KT 05/05 A302 RMK A01 T00500050  RH  100%=      5-min Rain = 0
KMC1 071856Z 04007KT 05/05 A302 RMK A01 T00500050  RH  100%=      5-min Rain = 0
KMC1 071857Z 04005KT 05/05 A302 RMK A01 T00500050  RH  100%=      5-min Rain = 0
KMC1 071858Z 04006KT 05/05 A302 RMK A01 T00500050  RH  100%=      5-min Rain = 0
KMC1 071859Z 04006KT 05/05 A302 RMK A01 T00500050  RH  100%=      5-min Rain = 0.01
KMC1 071900Z 03009KT 05/05 A302 RMK A01 T00500050  RH  100%=      5-min Rain = 0
KMC1 071901Z 04008KT 05/05 A302 RMK A01 T00500050  RH  100%=      5-min Rain = 0
KMC1 071902Z 03006KT 05/05 A302 RMK A01 T00500050  RH  100%=      5-min Rain = 0
KMC1 071903Z 04010KT 05/05 A302 RMK A01 T00510050  RH  100%=      5-min Rain = 0
KMC1 071904Z 03009KT 05/05 A302 RMK A01 T00510051  RH  100%=      5-min Rain = 0
KMC1 071905Z 04007KT 05/05 A3019 RMK A01 T00510050  RH  100%=      5-min Rain = 0
KMC1 071906Z 03007KT 05/05 A3019 RMK A01 T00510051  RH  100%=      5-min Rain = 0
KMC1 071907Z 03007KT 05/05 A3019 RMK A01 T00510051  RH  100%=      5-min Rain = 0
KMC1 071908Z 04007KT 05/05 A3019 RMK A01 T00520052  RH  100%=      5-min Rain = 0
KMC1 071909Z 03010KT 05/05 A3018 RMK A01 T00520052  RH  100%=      5-min Rain = 0
KMC1 071910Z 03010KT 05/05 A3018 RMK A01 T00520052  RH  100%=      5-min Rain = 0.01
KMC1 071911Z 03009KT 05/05 A3018 RMK A01 T00520052  RH  100%=      5-min Rain = 0
KMC1 071912Z 05007KT 05/05 A3018 RMK A01 T00530053  RH  100%=      5-min Rain = 0
KMC1 071913Z 04007KT 05/05 A3018 RMK A01 T00530053  RH  100%=      5-min Rain = 0
KMC1 071914Z 05005KT 05/05 A3018 RMK A01 T00530053  RH  100%=      5-min Rain = 0
KMC1 071915Z 05006KT 05/05 A3018 RMK A01 T00530053  RH  100%=      5-min Rain = 0
KMC1 071916Z 04008KT 05/05 A3018 RMK A01 T00530053  RH  100%=      5-min Rain = 0
KMC1 071917Z 04006KT 05/05 A3018 RMK A01 T00530053  RH  100%=      5-min Rain = 0
KMC1 071918Z 04005KT 05/05 A3018 RMK A01 T00530053  RH  100%=      5-min Rain = 0
KMC1 071919Z 04006KT 05/05 A3018 RMK A01 T00520052  RH  100%=      5-min Rain = 0
KMC1 071920Z 04010KT 05/05 A3018 RMK A01 T00530053  RH  100%=      5-min Rain = 0
KMC1 071921Z 04010KT 05/05 A3018 RMK A01 T00530053  RH  100%=      5-min Rain = 0
KMC1 071922Z 04008KT 05/05 A3018 RMK A01 T00520052  RH  100%=      5-min Rain = 0.01
KMC1 071923Z 04005KT 05/05 A3018 RMK A01 T00520052  RH  100%=      5-min Rain = 0
KMC1 071924Z 05004KT 05/05 A3018 RMK A01 T00520052  RH  100%=      5-min Rain = 0
KMC1 071925Z 05005KT 05/05 A3018 RMK A01 T00530053  RH  100%=      5-min Rain = 0
KMC1 071926Z 05005KT 05/05 A3018 RMK A01 T00530053  RH  100%=      5-min Rain = 0
KMC1 071927Z 04006KT 05/05 A3017 RMK A01 T00530053  RH  100%=      5-min Rain = 0
KMC1 071928Z 05008KT 05/05 A3017 RMK A01 T00530053  RH  100%=      5-min Rain = 0
KMC1 071929Z 03010KT 05/05 A3017 RMK A01 T00530053  RH  100%=      5-min Rain = 0
KMC1 071930Z 03008KT 05/05 A3017 RMK A01 T00530053  RH  100%=      5-min Rain = 0
KMC1 071931Z 04009KT 05/05 A3017 RMK A01 T00530053  RH  100%=      5-min Rain = 0
KMC1 071932Z 04010KT 05/05 A3017 RMK A01 T00520052  RH  100%=      5-min Rain = 0
KMC1 071933Z 04009KT 05/05 A3017 RMK A01 T00510051  RH  100%=      5-min Rain = 0
KMC1 071934Z 05007KT 05/05 A3017 RMK A01 T00510051  RH  100%=      5-min Rain = 0
KMC1 071935Z 05009KT 05/05 A3017 RMK A01 T00510051  RH  100%=      5-min Rain = 0
KMC1 071936Z 05008KT 05/05 A3017 RMK A01 T00510051  RH  100%=      5-min Rain = 0
KMC1 071937Z 05006KT 05/05 A3017 RMK A01 T00510051  RH  100%=      5-min Rain = 0.01
KMC1 071938Z 05006KT 05/05 A3017 RMK A01 T00510051  RH  100%=      5-min Rain = 0
KMC1 071939Z 05007KT 05/05 A3017 RMK A01 T00510051  RH  100%=      5-min Rain = 0
KMC1 071940Z 05006KT 05/05 A3017 RMK A01 T00510051  RH  100%=      5-min Rain = 0
KMC1 071941Z 05009G14KT 05/05 A3017 RMK A01 T00510051  RH  100%=      5-min Rain = 0
KMC1 071942Z 04010KT 05/05 A3017 RMK A01 T00510051  RH  100%=      5-min Rain = 0
KMC1 071943Z 04010KT 05/05 A3017 RMK A01 T00510051  RH  100%=      5-min Rain = 0
KMC1 071944Z 05006KT 05/05 A3017 RMK A01 T00500050  RH  100%=      5-min Rain = 0
KMC1 071945Z 04006KT 05/05 A3017 RMK A01 T00510051  RH  100%=      5-min Rain = 0
KMC1 071946Z 03007KT 05/05 A3017 RMK A01 T00510051  RH  100%=      5-min Rain = 0
KMC1 071947Z 04006KT 05/05 A3017 RMK A01 T00510051  RH  100%=      5-min Rain = 0.01
KMC1 071948Z 04003KT 05/05 A3017 RMK A01 T00510051  RH  100%=      5-min Rain = 0
KMC1 071949Z 04006KT 05/05 A3017 RMK A01 T00510051  RH  100%=      5-min Rain = 0
KMC1 071950Z 03006KT 05/05 A3017 RMK A01 T00510051  RH  100%=      5-min Rain = 0
KMC1 071951Z 04007KT 05/05 A3017 RMK A01 T00510051  RH  100%=      5-min Rain = 0.01
KMC1 071952Z 04007KT 05/05 A3017 RMK A01 T00510051  RH  100%=      5-min Rain = 0
KMC1 071953Z 03006KT 05/05 A3017 RMK A01 T00510051  RH  100%=      5-min Rain = 0
KMC1 071954Z 03008KT 05/05 A3017 RMK A01 T00510051  RH  100%=      5-min Rain = 0
KMC1 071955Z 04006KT 05/05 A3017 RMK A01 T00510051  RH  100%=      5-min Rain = 0.01
KMC1 071956Z 04006KT 05/05 A3018 RMK A01 T00510051  RH  100%=      5-min Rain = 0
KMC1 071957Z 04005KT 05/05 A3018 RMK A01 T00510051  RH  100%=      5-min Rain = 0
KMC1 071958Z 05004KT 05/05 A3018 RMK A01 T00510051  RH  100%=      5-min Rain = 0.01
KMC1 071959Z 05006KT 05/05 A3018 RMK A01 T00510051  RH  100%=      5-min Rain = 0
KMC1 072000Z 04006KT 05/05 A3018 RMK A01 T00510051  RH  100%=      5-min Rain = 0
KMC1 072001Z 04006KT 05/05 A3018 RMK A01 T00510051  RH  100%=      5-min Rain = 0
KMC1 072002Z 03007KT 05/05 A3018 RMK A01 T00510051  RH  100%=      5-min Rain = 0.01
KMC1 072003Z 03008KT 05/05 A3017 RMK A01 T00510051  RH  100%=      5-min Rain = 0
KMC1 072004Z 03007KT 05/05 A3017 RMK A01 T00500050  RH  100%=      5-min Rain = 0
KMC1 072005Z 04007KT 05/05 A3017 RMK A01 T00510050  RH  100%=      5-min Rain = 0.01
KMC1 072006Z 03007KT 05/05 A3017 RMK A01 T00510051  RH  100%=      5-min Rain = 0
KMC1 072007Z 04009KT 05/05 A3017 RMK A01 T00510051  RH  100%=      5-min Rain = 0
KMC1 072008Z 04007KT 05/05 A3017 RMK A01 T00510051  RH  100%=      5-min Rain = 0.01
KMC1 072009Z 04006KT 05/05 A3017 RMK A01 T00510051  RH  100%=      5-min Rain = 0
KMC1 072010Z 05005KT 05/05 A3017 RMK A01 T00500050  RH  100%=      5-min Rain = 0
KMC1 072011Z 05005KT 05/05 A3017 RMK A01 T00510051  RH  100%=      5-min Rain = 0.01
KMC1 072012Z 04006KT 05/05 A3017 RMK A01 T00510051  RH  100%=      5-min Rain = 0
KMC1 072013Z 05005KT 05/05 A3017 RMK A01 T00510051  RH  100%=      5-min Rain = 0
KMC1 072014Z 05004KT 05/05 A3017 RMK A01 T00510051  RH  100%=      5-min Rain = 0.01
KMC1 072015Z 04006KT 05/05 A3017 RMK A01 T00510051  RH  100%=      5-min Rain = 0
KMC1 072016Z 06006KT 05/05 A3017 RMK A01 T00510051  RH  100%=      5-min Rain = 0
KMC1 072017Z 06005KT 05/05 A3017 RMK A01 T00510051  RH  100%=      5-min Rain = 0.01
KMC1 072018Z 05006KT 05/05 A3017 RMK A01 T00510051  RH  100%=      5-min Rain = 0
KMC1 072019Z 04006KT 05/05 A3017 RMK A01 T00510051  RH  100%=      5-min Rain = 0
KMC1 072020Z 05006KT 05/05 A3017 RMK A01 T00510051  RH  100%=      5-min Rain = 0.01
KMC1 072021Z 05009KT 05/05 A3017 RMK A01 T00510051  RH  100%=      5-min Rain = 0
KMC1 072022Z 04008KT 05/05 A3017 RMK A01 T00510050  RH  100%=      5-min Rain = 0
KMC1 072023Z 04008KT 05/05 A3017 RMK A01 T00500050  RH  100%=      5-min Rain = 0.01
KMC1 072024Z 04009KT 05/05 A3017 RMK A01 T00500050  RH  100%=      5-min Rain = 0
KMC1 072025Z 03009KT 05/05 A3017 RMK A01 T00500050  RH  100%=      5-min Rain = 0
KMC1 072026Z 03008KT 05/05 A3017 RMK A01 T00500050  RH  100%=      5-min Rain = 0.01
KMC1 072027Z 03007KT 05/05 A3017 RMK A01 T00500050  RH  100%=      5-min Rain = 0
KMC1 072028Z 02008KT 05/05 A3017 RMK A01 T00500050  RH  100%=      5-min Rain = 0
KMC1 072029Z 03008KT 05/05 A3017 RMK A01 T00500050  RH  100%=      5-min Rain = 0.01
KMC1 072030Z 03007KT 05/05 A3017 RMK A01 T00500050  RH  100%=      5-min Rain = 0
KMC1 072031Z 03008KT 05/05 A3017 RMK A01 T00500050  RH  100%=      5-min Rain = 0
KMC1 072032Z 03007KT 05/05 A3017 RMK A01 T00500050  RH  100%=      5-min Rain = 0
KMC1 072033Z 02006KT 05/05 A3017 RMK A01 T00500050  RH  100%=      5-min Rain = 0.01
KMC1 072034Z 02006KT 05/05 A3017 RMK A01 T00510051  RH  100%=      5-min Rain = 0
KMC1 072035Z 01006KT 05/05 A3017 RMK A01 T00510051  RH  100%=      5-min Rain = 0
KMC1 072036Z 01007KT 05/05 A3017 RMK A01 T00510051  RH  100%=      5-min Rain = 0
KMC1 072037Z 01007KT 05/05 A3017 RMK A01 T00510051  RH  100%=      5-min Rain = 0.01
KMC1 072038Z 02008KT 05/05 A3017 RMK A01 T00510051  RH  100%=      5-min Rain = 0
KMC1 072039Z 02009KT 05/05 A3017 RMK A01 T00510051  RH  100%=      5-min Rain = 0
KMC1 072040Z 03006KT 05/05 A3017 RMK A01 T00510051  RH  100%=      5-min Rain = 0
KMC1 072041Z 02008KT 05/05 A3017 RMK A01 T00510051  RH  100%=      5-min Rain = 0.01
KMC1 072042Z 02008KT 05/05 A3017 RMK A01 T00510051  RH  100%=      5-min Rain = 0
KMC1 072043Z 02007KT 05/05 A3017 RMK A01 T00510051  RH  100%=      5-min Rain = 0
KMC1 072044Z 02006KT 05/05 A3017 RMK A01 T00510051  RH  100%=      5-min Rain = 0
KMC1 072045Z 03006KT 05/05 A3017 RMK A01 T00510051  RH  100%=      5-min Rain = 0.01
KMC1 072046Z 02007KT 05/05 A3017 RMK A01 T00510051  RH  100%=      5-min Rain = 0
KMC1 072047Z 02008KT 05/05 A3017 RMK A01 T00510051  RH  100%=      5-min Rain = 0
KMC1 072048Z 02006KT 05/05 A3017 RMK A01 T00510051  RH  100%=      5-min Rain = 0.01
KMC1 072049Z 02008KT 05/05 A3017 RMK A01 T00510051  RH  100%=      5-min Rain = 0
KMC1 072050Z 02007KT 05/05 A3017 RMK A01 T00520052  RH  100%=      5-min Rain = 0
KMC1 072051Z 02006KT 05/05 A3017 RMK A01 T00510051  RH  100%=      5-min Rain = 0
KMC1 072052Z 02006KT 05/05 A3017 RMK A01 T00520052  RH  100%=      5-min Rain = 0
KMC1 072053Z 02006KT 05/05 A3018 RMK A01 T00520051  RH  100%=      5-min Rain = 0
KMC1 072054Z 01006KT 05/05 A3018 RMK A01 T00520051  RH  100%=      5-min Rain = 0.01
KMC1 072055Z 01007KT 05/05 A3018 RMK A01 T00510051  RH  100%=      5-min Rain = 0
KMC1 072056Z 02008KT 05/05 A3017 RMK A01 T00510051  RH  100%=      5-min Rain = 0
KMC1 072057Z 02008KT 05/05 A3017 RMK A01 T00500050  RH  100%=      5-min Rain = 0
KMC1 072058Z 01006KT 05/05 A3017 RMK A01 T00510051  RH  100%=      5-min Rain = 0.01
KMC1 072059Z 01008KT 05/05 A3017 RMK A01 T00500050  RH  100%=      5-min Rain = 0
KMC1 072100Z 02007KT 05/05 A3016 RMK A01 T00500050  RH  100%=      5-min Rain = 0
KMC1 072101Z 01006KT 05/05 A3016 RMK A01 T00510051  RH  100%=      5-min Rain = 0.01
KMC1 072102Z 01007KT 05/05 A3016 RMK A01 T00510051  RH  100%=      5-min Rain = 0
KMC1 072103Z 00006KT 05/05 A3016 RMK A01 T00510051  RH  100%=      5-min Rain = 0
KMC1 072104Z 01007KT 05/05 A3016 RMK A01 T00510051  RH  100%=      5-min Rain = 0.01
KMC1 072105Z 35007KT 05/05 A3016 RMK A01 T00510051  RH  100%=      5-min Rain = 0
KMC1 072106Z 00008KT 05/05 A3016 RMK A01 T00510051  RH  100%=      5-min Rain = 0
KMC1 072107Z 01008KT 05/05 A3016 RMK A01 T00510051  RH  100%=      5-min Rain = 0
KMC1 072108Z 01008KT 05/05 A3016 RMK A01 T00510051  RH  100%=      5-min Rain = 0
KMC1 072109Z 01006KT 05/05 A3016 RMK A01 T00510051  RH  100%=      5-min Rain = 0.01
KMC1 072110Z 01005KT 05/05 A3016 RMK A01 T00510051  RH  100%=      5-min Rain = 0
KMC1 072111Z 35005KT 05/05 A3016 RMK A01 T00510051  RH  100%=      5-min Rain = 0.01
KMC1 072112Z 35005KT 05/05 A3016 RMK A01 T00510051  RH  100%=      5-min Rain = 0
KMC1 072113Z 35005KT 05/05 A3017 RMK A01 T00520052  RH  100%=      5-min Rain = 0
KMC1 072114Z 34009KT 05/05 A3017 RMK A01 T00520052  RH  100%=      5-min Rain = 0.01
KMC1 072115Z 33009KT 05/05 A3017 RMK A01 T00510051  RH  100%=      5-min Rain = 0
KMC1 072116Z 33007KT 05/05 A3017 RMK A01 T00500050  RH  100%=      5-min Rain = 0
KMC1 072117Z 34007KT 05/05 A3017 RMK A01 T00510051  RH  100%=      5-min Rain = 0
KMC1 072118Z 34006KT 05/05 A3017 RMK A01 T00500050  RH  100%=      5-min Rain = 0
KMC1 072119Z 34008KT 05/05 A3017 RMK A01 T00510051  RH  100%=      5-min Rain = 0.01
KMC1 072120Z 34006KT 05/05 A3017 RMK A01 T00500050  RH  100%=      5-min Rain = 0
KMC1 072121Z 34007KT 05/05 A3017 RMK A01 T00510051  RH  100%=      5-min Rain = 0
KMC1 072122Z 33005KT 05/05 A3018 RMK A01 T00500050  RH  100%=      5-min Rain = 0.01
KMC1 072123Z 34006KT 05/05 A3018 RMK A01 T00510051  RH  100%=      5-min Rain = 0
KMC1 072124Z 33004KT 05/05 A3018 RMK A01 T00510050  RH  100%=      5-min Rain = 0
KMC1 072125Z 33005KT 05/05 A3018 RMK A01 T00500050  RH  100%=      5-min Rain = 0.01
KMC1 072126Z 34005KT 05/05 A3018 RMK A01 T00500050  RH  100%=      5-min Rain = 0
KMC1 072127Z 35004KT 05/05 A3018 RMK A01 T00510051  RH  100%=      5-min Rain = 0
KMC1 072128Z 34004KT 05/05 A3018 RMK A01 T00510051  RH  100%=      5-min Rain = 0.01
KMC1 072129Z 35003KT 05/05 A3019 RMK A01 T00510051  RH  100%=      5-min Rain = 0
KMC1 072130Z 34005KT 05/05 A3019 RMK A01 T00510051  RH  100%=      5-min Rain = 0
KMC1 072131Z 34003KT 05/05 A3019 RMK A01 T00510051  RH  100%=      5-min Rain = 0
KMC1 072132Z 34004KT 05/05 A3019 RMK A01 T00510051  RH  100%=      5-min Rain = 0.01
KMC1 072133Z 34003KT 05/05 A3019 RMK A01 T00510051  RH  100%=      5-min Rain = 0
KMC1 072134Z 35002KT 05/05 A3019 RMK A01 T00510051  RH  100%=      5-min Rain = 0
KMC1 072135Z 34002KT 05/05 A3019 RMK A01 T00510051  RH  100%=      5-min Rain = 0.01
KMC1 072136Z 34002KT 05/05 A3019 RMK A01 T00510051  RH  100%=      5-min Rain = 0
KMC1 072137Z 34004KT 05/05 A3019 RMK A01 T00520052  RH  100%=      5-min Rain = 0
KMC1 072138Z 35006KT 05/05 A3019 RMK A01 T00510051  RH  100%=      5-min Rain = 0.01
KMC1 072139Z 35005KT 05/05 A3019 RMK A01 T00510051  RH  100%=      5-min Rain = 0
KMC1 072140Z 34007KT 05/05 A3019 RMK A01 T00510051  RH  100%=      5-min Rain = 0.01
KMC1 072141Z 00004KT 05/05 A3019 RMK A01 T00510051  RH  100%=      5-min Rain = 0
KMC1 072142Z 35004KT 05/05 A3019 RMK A01 T00510051  RH  100%=      5-min Rain = 0.01
KMC1 072143Z 35006KT 05/05 A3019 RMK A01 T00520052  RH  100%=      5-min Rain = 0.01
KMC1 072144Z 36006KT 05/05 A3019 RMK A01 T00520052  RH  100%=      5-min Rain = 0
KMC1 072145Z 01005KT 05/05 A3019 RMK A01 T00520052  RH  100%=      5-min Rain = 0
KMC1 072146Z 36007KT 05/05 A3019 RMK A01 T00520052  RH  100%=      5-min Rain = 0.01
KMC1 072147Z 36006KT 05/05 A3019 RMK A01 T00520052  RH  100%=      5-min Rain = 0
KMC1 072148Z 34006KT 05/05 A3019 RMK A01 T00520052  RH  100%=      5-min Rain = 0
KMC1 072149Z 35006KT 05/05 A3019 RMK A01 T00520052  RH  100%=      5-min Rain = 0.01
KMC1 072150Z 35006KT 05/05 A3019 RMK A01 T00520052  RH  100%=      5-min Rain = 0
KMC1 072151Z 34005KT 05/05 A3019 RMK A01 T00520052  RH  100%=      5-min Rain = 0
KMC1 072152Z 33004KT 05/05 A302 RMK A01 T00520052  RH  100%=      5-min Rain = 0
KMC1 072153Z 35006KT 05/05 A302 RMK A01 T00520052  RH  100%=      5-min Rain = 0
KMC1 072154Z 33004KT 05/05 A302 RMK A01 T00520052  RH  100%=      5-min Rain = 0
KMC1 072155Z 34004KT 05/05 A302 RMK A01 T00520052  RH  100%=      5-min Rain = 0.01
KMC1 072156Z 35004KT 05/05 A302 RMK A01 T00520052  RH  100%=      5-min Rain = 0
KMC1 072157Z 35004KT 05/05 A302 RMK A01 T00520052  RH  100%=      5-min Rain = 0
KMC1 072158Z 34004KT 05/05 A302 RMK A01 T00520052  RH  100%=      5-min Rain = 0
KMC1 072159Z 34003KT 05/05 A3021 RMK A01 T00520052  RH  100%=      5-min Rain = 0
KMC1 072200Z 35004KT 05/05 A3021 RMK A01 T00520052  RH  100%=      5-min Rain = 0
KMC1 072201Z 34004KT 05/05 A3021 RMK A01 T00520052  RH  100%=      5-min Rain = 0.01
KMC1 072202Z 33003KT 05/05 A3021 RMK A01 T00520052  RH  100%=      5-min Rain = 0
KMC1 072203Z 34005KT 05/05 A3021 RMK A01 T00520052  RH  100%=      5-min Rain = 0
KMC1 072204Z 34004KT 05/05 A3022 RMK A01 T00520052  RH  100%=      5-min Rain = 0
KMC1 072205Z 31003KT 05/05 A3022 RMK A01 T00510051  RH  100%=      5-min Rain = 0
KMC1 072206Z 33003KT 05/05 A3022 RMK A01 T00520052  RH  100%=      5-min Rain = 0
KMC1 072207Z 34005KT 05/05 A3022 RMK A01 T00520052  RH  100%=      5-min Rain = 0
KMC1 072208Z 34004KT 05/05 A3022 RMK A01 T00520051  RH  100%=      5-min Rain = 0
KMC1 072209Z 35005KT 05/05 A3022 RMK A01 T00510051  RH  100%=      5-min Rain = 0
KMC1 072210Z 35003KT 05/05 A3022 RMK A01 T00510051  RH  100%=      5-min Rain = 0.01
KMC1 072211Z 36003KT 05/05 A3022 RMK A01 T00510051  RH  100%=      5-min Rain = 0
KMC1 072212Z 35005KT 05/05 A3021 RMK A01 T00520052  RH  100%=      5-min Rain = 0
KMC1 072213Z 36004KT 05/05 A3021 RMK A01 T00520052  RH  100%=      5-min Rain = 0
KMC1 072214Z 01005KT 05/05 A3021 RMK A01 T00510051  RH  100%=      5-min Rain = 0
KMC1 072215Z 00005KT 05/05 A3021 RMK A01 T00510051  RH  100%=      5-min Rain = 0
KMC1 072216Z 01005KT 05/05 A3021 RMK A01 T00510051  RH  100%=      5-min Rain = 0
KMC1 072217Z 01006KT 05/05 A302 RMK A01 T00520052  RH  100%=      5-min Rain = 0.01
KMC1 072218Z 00006KT 05/05 A302 RMK A01 T00510051  RH  100%=      5-min Rain = 0
KMC1 072219Z 35006KT 05/05 A302 RMK A01 T00510051  RH  100%=      5-min Rain = 0
KMC1 072220Z 36008KT 05/05 A302 RMK A01 T00510051  RH  100%=      5-min Rain = 0
KMC1 072221Z 35008KT 05/05 A302 RMK A01 T00510051  RH  100%=      5-min Rain = 0
KMC1 072222Z 35007KT 05/05 A302 RMK A01 T00510051  RH  100%=      5-min Rain = 0
KMC1 072223Z 36006KT 05/05 A302 RMK A01 T00510050  RH  100%=      5-min Rain = 0
KMC1 072224Z 35006KT 05/05 A302 RMK A01 T00510050  RH  100%=      5-min Rain = 0.01
KMC1 072225Z 36006KT 05/05 A302 RMK A01 T00500050  RH  100%=      5-min Rain = 0
KMC1 072226Z 35008KT 05/05 A302 RMK A01 T00510050  RH  100%=      5-min Rain = 0
KMC1 072227Z 35007KT 05/05 A302 RMK A01 T00510051  RH  100%=      5-min Rain = 0
KMC1 072228Z 35006KT 05/05 A302 RMK A01 T00500050  RH  100%=      5-min Rain = 0
KMC1 072229Z 35008KT 05/05 A302 RMK A01 T00500050  RH  100%=      5-min Rain = 0
KMC1 072230Z 35007KT 05/05 A302 RMK A01 T00500050  RH  100%=      5-min Rain = 0
KMC1 072231Z 35006KT 05/05 A302 RMK A01 T00500049  RH  100%=      5-min Rain = 0
KMC1 072232Z 01006KT 05/05 A302 RMK A01 T00500049  RH  100%=      5-min Rain = 0.01
KMC1 072233Z 36005KT 05/05 A302 RMK A01 T00500049  RH  100%=      5-min Rain = 0
KMC1 072234Z 36008KT 05/05 A302 RMK A01 T00500049  RH  100%=      5-min Rain = 0
KMC1 072235Z 35006KT 05/05 A302 RMK A01 T00490049  RH  100%=      5-min Rain = 0
KMC1 072236Z 00007KT 05/05 A302 RMK A01 T00500049  RH  100%=      5-min Rain = 0
KMC1 072237Z 36006KT 05/05 A302 RMK A01 T00500049  RH  100%=      5-min Rain = 0
KMC1 072238Z 00006KT 05/05 A302 RMK A01 T00500049  RH  100%=      5-min Rain = 0
KMC1 072239Z 36007KT 05/05 A302 RMK A01 T00490049  RH  100%=      5-min Rain = 0
KMC1 072240Z 00006KT 05/05 A302 RMK A01 T00490049  RH  100%=      5-min Rain = 0
KMC1 072241Z 01007KT 05/05 A302 RMK A01 T00490049  RH  100%=      5-min Rain = 0
KMC1 072242Z 00007KT 05/05 A302 RMK A01 T00490049  RH  100%=      5-min Rain = 0
KMC1 072243Z 36005KT 05/05 A302 RMK A01 T00490048  RH  100%=      5-min Rain = 0
KMC1 072244Z 36005KT 05/05 A302 RMK A01 T00490049  RH  100%=      5-min Rain = 0
KMC1 072245Z 36005KT 05/05 A302 RMK A01 T00490049  RH  100%=      5-min Rain = 0
KMC1 072246Z 00004KT 05/05 A3021 RMK A01 T00490049  RH  100%=      5-min Rain = 0
KMC1 072247Z 35007KT 05/05 A3021 RMK A01 T00490049  RH  100%=      5-min Rain = 0
KMC1 072248Z 35006KT 05/05 A3021 RMK A01 T00490049  RH  100%=      5-min Rain = 0
KMC1 072249Z 35005KT 05/05 A302 RMK A01 T00490048  RH  100%=      5-min Rain = 0
KMC1 072250Z 36005KT 05/05 A302 RMK A01 T00490048  RH  100%=      5-min Rain = 0.01
KMC1 072251Z 36006KT 05/05 A302 RMK A01 T00490049  RH  100%=      5-min Rain = 0
KMC1 072252Z 01006KT 05/05 A302 RMK A01 T00490049  RH  100%=      5-min Rain = 0
KMC1 072253Z 00007KT 05/05 A302 RMK A01 T00490049  RH  100%=      5-min Rain = 0
KMC1 072254Z 36007KT 05/05 A302 RMK A01 T00480048  RH  100%=      5-min Rain = 0
KMC1 072255Z 01008KT 05/05 A302 RMK A01 T00480048  RH  100%=      5-min Rain = 0
KMC1 072256Z 35007KT 05/05 A302 RMK A01 T00480047  RH  100%=      5-min Rain = 0
KMC1 072257Z 35008KT 05/05 A302 RMK A01 T00480047  RH  100%=      5-min Rain = 0
KMC1 072258Z 00006KT 05/05 A302 RMK A01 T00480047  RH  100%=      5-min Rain = 0
KMC1 072259Z 36007KT 05/05 A302 RMK A01 T00480047  RH  100%=      5-min Rain = 0.01
KMC1 072300Z 36007KT 05/05 A302 RMK A01 T00470047  RH  100%=      5-min Rain = 0
KMC1 072301Z 35008KT 05/05 A3019 RMK A01 T00470047  RH  100%=      5-min Rain = 0
KMC1 072302Z 00007KT 05/05 A3019 RMK A01 T00460046  RH  100%=      5-min Rain = 0
KMC1 072303Z 36005KT 05/05 A3019 RMK A01 T00460045  RH  100%=      5-min Rain = 0
KMC1 072304Z 36007KT 05/05 A3019 RMK A01 T00460045  RH  100%=      5-min Rain = 0
KMC1 072305Z 01008KT 05/05 A3019 RMK A01 T00460045  RH  100%=      5-min Rain = 0
KMC1 072306Z 01008KT 05/04 A3019 RMK A01 T00450044  RH  100%=      5-min Rain = 0
KMC1 072307Z 01010KT 04/04 A3019 RMK A01 T00440044  RH  100%=      5-min Rain = 0
KMC1 072308Z 01008KT 04/04 A3019 RMK A01 T00440043  RH  099%=      5-min Rain = 0
KMC1 072309Z 01008KT 04/04 A3019 RMK A01 T00440043  RH  099%=      5-min Rain = 0
KMC1 072310Z 00006KT 04/04 A3019 RMK A01 T00440043  RH  099%=      5-min Rain = 0
KMC1 072311Z 02008KT 04/04 A3019 RMK A01 T00440043  RH  099%=      5-min Rain = 0
KMC1 072312Z 02009KT 04/04 A3019 RMK A01 T00440043  RH  099%=      5-min Rain = 0.01
KMC1 072313Z 02009KT 04/04 A3019 RMK A01 T00430042  RH  099%=      5-min Rain = 0
KMC1 072314Z 02008KT 04/04 A3019 RMK A01 T00430042  RH  099%=      5-min Rain = 0
KMC1 072315Z 01006KT 04/04 A3018 RMK A01 T00420041  RH  099%=      5-min Rain = 0
KMC1 072316Z 02008KT 04/04 A3018 RMK A01 T00420042  RH  099%=      5-min Rain = 0
KMC1 072317Z 02007KT 04/04 A3018 RMK A01 T00420042  RH  099%=      5-min Rain = 0
KMC1 072318Z 02006KT 04/04 A3018 RMK A01 T00420041  RH  100%=      5-min Rain = 0
KMC1 072319Z 03006KT 04/04 A3018 RMK A01 T00420042  RH  100%=      5-min Rain = 0
KMC1 072320Z 02006KT 04/04 A3019 RMK A01 T00420042  RH  100%=      5-min Rain = 0
KMC1 072321Z 02005KT 04/04 A3019 RMK A01 T00430042  RH  100%=      5-min Rain = 0
KMC1 072322Z 02006KT 04/04 A3019 RMK A01 T00420042  RH  100%=      5-min Rain = 0
KMC1 072323Z 02007KT 04/04 A3019 RMK A01 T00420042  RH  100%=      5-min Rain = 0
KMC1 072324Z 02007KT 04/04 A302 RMK A01 T00420042  RH  100%=      5-min Rain = 0
KMC1 072325Z 01007KT 04/04 A302 RMK A01 T00420041  RH  100%=      5-min Rain = 0
KMC1 072326Z 01006KT 04/04 A302 RMK A01 T00420041  RH  100%=      5-min Rain = 0
KMC1 072327Z 01005KT 04/04 A302 RMK A01 T00420042  RH  100%=      5-min Rain = 0
KMC1 072328Z 00005KT 04/04 A302 RMK A01 T00420041  RH  100%=      5-min Rain = 0
KMC1 072329Z 00006KT 04/04 A302 RMK A01 T00420041  RH  100%=      5-min Rain = 0
KMC1 072330Z 01004KT 04/04 A302 RMK A01 T00420042  RH  100%=      5-min Rain = 0.01
KMC1 072331Z 36005KT 04/04 A302 RMK A01 T00420041  RH  100%=      5-min Rain = 0
KMC1 072332Z 01004KT 04/04 A302 RMK A01 T00420042  RH  100%=      5-min Rain = 0
KMC1 072333Z 01005KT 04/04 A3021 RMK A01 T00420042  RH  100%=      5-min Rain = 0
KMC1 072334Z 01007KT 04/04 A3021 RMK A01 T00420041  RH  100%=      5-min Rain = 0
KMC1 072335Z 01009KT 04/04 A3021 RMK A01 T00410041  RH  100%=      5-min Rain = 0.01
KMC1 072336Z 36006KT 04/04 A3021 RMK A01 T00410041  RH  100%=      5-min Rain = 0
KMC1 072337Z 35004KT 04/04 A3021 RMK A01 T00410040  RH  100%=      5-min Rain = 0
KMC1 072338Z 00007KT 04/04 A3021 RMK A01 T00410040  RH  100%=      5-min Rain = 0
KMC1 072339Z 36006KT 04/04 A3022 RMK A01 T00410040  RH  100%=      5-min Rain = 0
KMC1 072340Z 35004KT 04/04 A3022 RMK A01 T00410040  RH  099%=      5-min Rain = 0
KMC1 072341Z 35005KT 04/04 A3022 RMK A01 T00400039  RH  099%=      5-min Rain = 0.01
KMC1 072342Z 35005KT 04/04 A3022 RMK A01 T00410040  RH  099%=      5-min Rain = 0
KMC1 072343Z 00008KT 04/04 A3022 RMK A01 T00400039  RH  099%=      5-min Rain = 0
KMC1 072344Z 00006KT 04/04 A3022 RMK A01 T00400039  RH  099%=      5-min Rain = 0
KMC1 072345Z 01006KT 04/04 A3022 RMK A01 T00400039  RH  099%=      5-min Rain = 0.01
KMC1 072346Z 01005KT 04/04 A3022 RMK A01 T00400039  RH  099%=      5-min Rain = 0
KMC1 072347Z 36006KT 04/04 A3022 RMK A01 T00400039  RH  099%=      5-min Rain = 0
KMC1 072348Z 36006KT 04/04 A3023 RMK A01 T00400039  RH  099%=      5-min Rain = 0
KMC1 072349Z 36006KT 04/04 A3023 RMK A01 T00400039  RH  099%=      5-min Rain = 0
KMC1 072350Z 35005KT 04/04 A3023 RMK A01 T00400039  RH  099%=      5-min Rain = 0
KMC1 072351Z 00004KT 04/04 A3023 RMK A01 T00400038  RH  099%=      5-min Rain = 0
KMC1 072352Z 36004KT 04/04 A3022 RMK A01 T00400038  RH  099%=      5-min Rain = 0.01
KMC1 072353Z 36004KT 04/04 A3022 RMK A01 T00400039  RH  099%=      5-min Rain = 0
KMC1 072354Z 00004KT 04/04 A3022 RMK A01 T00400039  RH  099%=      5-min Rain = 0
KMC1 072355Z 35003KT 04/04 A3022 RMK A01 T00400039  RH  099%=      5-min Rain = 0
KMC1 072356Z 35003KT 04/04 A3022 RMK A01 T00400040  RH  100%=      5-min Rain = 0
KMC1 072357Z 34003KT 04/04 A3022 RMK A01 T00400040  RH  100%=      5-min Rain = 0.01
KMC1 072358Z 34003KT 04/04 A3022 RMK A01 T00410040  RH  100%=      5-min Rain = 0
KMC1 072359Z 34003KT 04/04 A3022 RMK A01 T00400040  RH  100%=      5-min Rain = 0
KMC1 080000Z 36003KT 04/04 A3022 RMK A01 T00410040  RH  100%=      5-min Rain = 0
KMC1 080001Z 35004KT 04/04 A3022 RMK A01 T00400040  RH  100%=      5-min Rain = 0
KMC1 080002Z 35004KT 04/04 A3022 RMK A01 T00400040  RH  100%=      5-min Rain = 0.01
KMC1 080003Z 00004KT 04/04 A3022 RMK A01 T00400040  RH  100%=      5-min Rain = 0
KMC1 080004Z 35005KT 04/04 A3022 RMK A01 T00400040  RH  100%=      5-min Rain = 0
KMC1 080005Z 36005KT 04/04 A3022 RMK A01 T00400040  RH  100%=      5-min Rain = 0.01
KMC1 080006Z 01004KT 04/04 A3022 RMK A01 T00390039  RH  100%=      5-min Rain = 0
KMC1 080007Z 36004KT 04/04 A3022 RMK A01 T00400039  RH  100%=      5-min Rain = 0
KMC1 080008Z 01003KT 04/04 A3022 RMK A01 T00400039  RH  100%=      5-min Rain = 0
KMC1 080009Z 02004KT 04/04 A3022 RMK A01 T00390039  RH  100%=      5-min Rain = 0.01
KMC1 080010Z 01004KT 04/04 A3022 RMK A01 T00390039  RH  100%=      5-min Rain = 0
KMC1 080011Z 02004KT 04/04 A3022 RMK A01 T00390039  RH  100%=      5-min Rain = 0
KMC1 080012Z 01004KT 04/04 A3022 RMK A01 T00400040  RH  100%=      5-min Rain = 0
KMC1 080013Z 01004KT 04/04 A3022 RMK A01 T00390039  RH  100%=      5-min Rain = 0.01
KMC1 080014Z 01004KT 04/04 A3022 RMK A01 T00400040  RH  100%=      5-min Rain = 0
KMC1 080015Z 02004KT 04/04 A3022 RMK A01 T00400040  RH  100%=      5-min Rain = 0
KMC1 080016Z 02003KT 04/04 A3022 RMK A01 T00390039  RH  100%=      5-min Rain = 0
KMC1 080017Z 01003KT 04/04 A3022 RMK A01 T00390039  RH  100%=      5-min Rain = 0.01
KMC1 080018Z 01003KT 04/04 A3022 RMK A01 T00390039  RH  100%=      5-min Rain = 0
KMC1 080019Z 36004KT 04/04 A3022 RMK A01 T00390039  RH  100%=      5-min Rain = 0
KMC1 080020Z 36004KT 04/04 A3022 RMK A01 T00390039  RH  100%=      5-min Rain = 0
KMC1 080021Z 36004KT 04/04 A3022 RMK A01 T00400040  RH  100%=      5-min Rain = 0.01
KMC1 080022Z 35004KT 04/04 A3022 RMK A01 T00400040  RH  100%=      5-min Rain = 0
KMC1 080023Z 36003KT 04/04 A3022 RMK A01 T00390039  RH  100%=      5-min Rain = 0.01
KMC1 080024Z 00003KT 04/04 A3022 RMK A01 T00400039  RH  100%=      5-min Rain = 0
KMC1 080025Z 36003KT 04/04 A3022 RMK A01 T00400040  RH  100%=      5-min Rain = 0
KMC1 080026Z 00003KT 04/04 A3022 RMK A01 T00400040  RH  100%=      5-min Rain = 0.01
KMC1 080027Z 36004KT 04/04 A3022 RMK A01 T00400040  RH  100%=      5-min Rain = 0
KMC1 080028Z 01004KT 04/04 A3022 RMK A01 T00390039  RH  100%=      5-min Rain = 0
KMC1 080029Z 01005KT 04/04 A3022 RMK A01 T00390039  RH  100%=      5-min Rain = 0.01
KMC1 080030Z 01006KT 04/04 A3022 RMK A01 T00390039  RH  100%=      5-min Rain = 0
KMC1 080031Z 01005KT 04/04 A3022 RMK A01 T00390039  RH  100%=      5-min Rain = 0
KMC1 080032Z 01005KT 04/04 A3022 RMK A01 T00390039  RH  100%=      5-min Rain = 0.01
KMC1 080033Z 01006KT 04/04 A3021 RMK A01 T00390039  RH  100%=      5-min Rain = 0
KMC1 080034Z 01005KT 04/04 A3021 RMK A01 T00390039  RH  100%=      5-min Rain = 0
KMC1 080035Z 01004KT 04/04 A3021 RMK A01 T00390039  RH  100%=      5-min Rain = 0
KMC1 080036Z 01005KT 04/04 A3021 RMK A01 T00390039  RH  100%=      5-min Rain = 0.01
KMC1 080037Z 01004KT 04/04 A3021 RMK A01 T00390039  RH  100%=      5-min Rain = 0
KMC1 080038Z 01004KT 04/04 A3021 RMK A01 T00390038  RH  100%=      5-min Rain = 0
KMC1 080039Z 01007KT 04/04 A3021 RMK A01 T00390039  RH  100%=      5-min Rain = 0
KMC1 080040Z 01007KT 04/04 A3021 RMK A01 T00380038  RH  100%=      5-min Rain = 0
KMC1 080041Z 01006KT 04/04 A3021 RMK A01 T00380038  RH  100%=      5-min Rain = 0
KMC1 080042Z 01006KT 04/04 A302 RMK A01 T00380038  RH  100%=      5-min Rain = 0.01
KMC1 080043Z 01005KT 04/04 A302 RMK A01 T00380038  RH  100%=      5-min Rain = 0
KMC1 080044Z 00006KT 04/04 A302 RMK A01 T00380038  RH  100%=      5-min Rain = 0
KMC1 080045Z 00006KT 04/04 A302 RMK A01 T00390038  RH  100%=      5-min Rain = 0
KMC1 080046Z 00006KT 04/04 A302 RMK A01 T00380038  RH  100%=      5-min Rain = 0
KMC1 080047Z 00006KT 04/04 A302 RMK A01 T00380038  RH  100%=      5-min Rain = 0
KMC1 080048Z 00006KT 04/04 A302 RMK A01 T00380038  RH  100%=      5-min Rain = 0
KMC1 080049Z 00005KT 04/04 A302 RMK A01 T00380038  RH  100%=      5-min Rain = 0
KMC1 080050Z 36005KT 04/04 A302 RMK A01 T00380038  RH  100%=      5-min Rain = 0.01
KMC1 080051Z 36007KT 04/04 A302 RMK A01 T00380038  RH  100%=      5-min Rain = 0
KMC1 080052Z 36006KT 04/04 A3021 RMK A01 T00380038  RH  100%=      5-min Rain = 0
KMC1 080053Z 36007KT 04/04 A3021 RMK A01 T00380038  RH  100%=      5-min Rain = 0
KMC1 080054Z 36007KT 04/04 A3021 RMK A01 T00380038  RH  100%=      5-min Rain = 0
KMC1 080055Z 35006KT 04/04 A3021 RMK A01 T00370037  RH  100%=      5-min Rain = 0
KMC1 080056Z 00006KT 04/04 A3021 RMK A01 T00370037  RH  100%=      5-min Rain = 0.01
KMC1 080057Z 36006KT 04/04 A3021 RMK A01 T00370037  RH  100%=      5-min Rain = 0
KMC1 080058Z 00006KT 04/04 A3021 RMK A01 T00370037  RH  100%=      5-min Rain = 0
KMC1 080059Z 01007KT 04/04 A3021 RMK A01 T00370037  RH  100%=      5-min Rain = 0
KMC1 080100Z 01007KT 04/04 A3021 RMK A01 T00370037  RH  100%=      5-min Rain = 0
KMC1 080101Z 01006KT 04/04 A3021 RMK A01 T00370037  RH  100%=      5-min Rain = 0.01
KMC1 080102Z 01005KT 04/04 A3021 RMK A01 T00370037  RH  100%=      5-min Rain = 0
KMC1 080103Z 01007KT 04/04 A3021 RMK A01 T00370037  RH  100%=      5-min Rain = 0
KMC1 080104Z 01006KT 04/04 A3021 RMK A01 T00370037  RH  100%=      5-min Rain = 0
KMC1 080105Z 01007KT 04/04 A302 RMK A01 T00370037  RH  100%=      5-min Rain = 0
KMC1 080106Z 01007KT 04/04 A302 RMK A01 T00370037  RH  100%=      5-min Rain = 0
KMC1 080107Z 01006KT 04/04 A302 RMK A01 T00370037  RH  100%=      5-min Rain = 0
KMC1 080108Z 01007KT 04/04 A302 RMK A01 T00370037  RH  100%=      5-min Rain = 0
KMC1 080109Z 01008KT 04/04 A302 RMK A01 T00370037  RH  100%=      5-min Rain = 0.01
KMC1 080110Z 02008KT 04/04 A302 RMK A01 T00370037  RH  100%=      5-min Rain = 0
KMC1 080111Z 01006KT 04/04 A302 RMK A01 T00370037  RH  100%=      5-min Rain = 0
KMC1 080112Z 01006KT 04/04 A302 RMK A01 T00370037  RH  100%=      5-min Rain = 0
KMC1 080113Z 00005KT 04/04 A302 RMK A01 T00370037  RH  100%=      5-min Rain = 0
KMC1 080114Z 01005KT 04/04 A3021 RMK A01 T00370037  RH  100%=      5-min Rain = 0
KMC1 080115Z 00005KT 04/04 A3021 RMK A01 T00370037  RH  100%=      5-min Rain = 0
KMC1 080116Z 00006KT 04/04 A3021 RMK A01 T00370037  RH  100%=      5-min Rain = 0
KMC1 080117Z 00006KT 04/04 A3021 RMK A01 T00370037  RH  100%=      5-min Rain = 0.01
KMC1 080118Z 00006KT 04/04 A3021 RMK A01 T00370037  RH  100%=      5-min Rain = 0
KMC1 080119Z 01007KT 04/04 A3021 RMK A01 T00370037  RH  100%=      5-min Rain = 0
KMC1 080120Z 00006KT 04/04 A3021 RMK A01 T00370037  RH  100%=      5-min Rain = 0
KMC1 080121Z 01007KT 04/04 A3021 RMK A01 T00370037  RH  100%=      5-min Rain = 0
KMC1 080122Z 00007KT 04/04 A3021 RMK A01 T00370037  RH  100%=      5-min Rain = 0
KMC1 080123Z 36007KT 04/04 A3021 RMK A01 T00370037  RH  100%=      5-min Rain = 0
KMC1 080124Z 35006KT 04/04 A3021 RMK A01 T00370037  RH  100%=      5-min Rain = 0
KMC1 080125Z 35006KT 04/04 A3021 RMK A01 T00380038  RH  100%=      5-min Rain = 0
KMC1 080126Z 36007KT 04/04 A3021 RMK A01 T00380037  RH  100%=      5-min Rain = 0
KMC1 080127Z 36007KT 04/04 A3021 RMK A01 T00370037  RH  100%=      5-min Rain = 0
KMC1 080128Z 01007KT 04/04 A3021 RMK A01 T00370037  RH  100%=      5-min Rain = 0.01
KMC1 080129Z 01009KT 04/04 A3021 RMK A01 T00370037  RH  100%=      5-min Rain = 0
KMC1 080130Z 01007KT 04/04 A3021 RMK A01 T00370037  RH  100%=      5-min Rain = 0
KMC1 080131Z 36006KT 04/04 A3021 RMK A01 T00370037  RH  100%=      5-min Rain = 0
KMC1 080132Z 35005KT 04/04 A3021 RMK A01 T00370037  RH  100%=      5-min Rain = 0
KMC1 080133Z 36004KT 04/04 A3021 RMK A01 T00370037  RH  100%=      5-min Rain = 0
KMC1 080134Z 00006KT 04/04 A3021 RMK A01 T00380038  RH  100%=      5-min Rain = 0
KMC1 080135Z 35007KT 04/04 A3021 RMK A01 T00380038  RH  100%=      5-min Rain = 0
KMC1 080136Z 36006KT 04/04 A3021 RMK A01 T00380038  RH  100%=      5-min Rain = 0
KMC1 080137Z 34005KT 04/04 A3021 RMK A01 T00380038  RH  100%=      5-min Rain = 0
KMC1 080138Z 34006KT 04/04 A3022 RMK A01 T00380038  RH  100%=      5-min Rain = 0
KMC1 080139Z 33005KT 04/04 A3022 RMK A01 T00380038  RH  100%=      5-min Rain = 0
KMC1 080140Z 33006KT 04/04 A3022 RMK A01 T00380038  RH  100%=      5-min Rain = 0.01
KMC1 080141Z 34005KT 04/04 A3022 RMK A01 T00380038  RH  100%=      5-min Rain = 0
KMC1 080142Z 34006KT 04/04 A3022 RMK A01 T00380038  RH  100%=      5-min Rain = 0
KMC1 080143Z 34006KT 04/04 A3023 RMK A01 T00380038  RH  100%=      5-min Rain = 0
KMC1 080144Z 34006KT 04/04 A3023 RMK A01 T00380038  RH  100%=      5-min Rain = 0
KMC1 080145Z 34005KT 04/04 A3023 RMK A01 T00380038  RH  100%=      5-min Rain = 0
KMC1 080146Z 33005KT 04/04 A3023 RMK A01 T00380038  RH  100%=      5-min Rain = 0
KMC1 080147Z 34006KT 04/04 A3023 RMK A01 T00380038  RH  100%=      5-min Rain = 0
KMC1 080148Z 34005KT 04/04 A3023 RMK A01 T00380038  RH  100%=      5-min Rain = 0
KMC1 080149Z 34005KT 04/04 A3023 RMK A01 T00380038  RH  100%=      5-min Rain = 0
KMC1 080150Z 34007KT 04/04 A3023 RMK A01 T00380038  RH  100%=      5-min Rain = 0
KMC1 080151Z 34006KT 04/04 A3023 RMK A01 T00370037  RH  100%=      5-min Rain = 0
KMC1 080152Z 35006KT 04/04 A3023 RMK A01 T00370037  RH  100%=      5-min Rain = 0
KMC1 080153Z 34006KT 04/04 A3023 RMK A01 T00370037  RH  100%=      5-min Rain = 0.01
KMC1 080154Z 33003KT 04/04 A3023 RMK A01 T00370037  RH  100%=      5-min Rain = 0
KMC1 080155Z 33004KT 04/04 A3023 RMK A01 T00380038  RH  100%=      5-min Rain = 0
KMC1 080156Z 34005KT 04/04 A3023 RMK A01 T00370037  RH  100%=      5-min Rain = 0
KMC1 080157Z 35005KT 04/04 A3023 RMK A01 T00380037  RH  100%=      5-min Rain = 0
KMC1 080158Z 33005KT 04/04 A3023 RMK A01 T00370037  RH  100%=      5-min Rain = 0
KMC1 080159Z 34005KT 04/04 A3023 RMK A01 T00370037  RH  100%=      5-min Rain = 0
KMC1 080200Z 35007KT 04/04 A3023 RMK A01 T00370037  RH  100%=      5-min Rain = 0
KMC1 080201Z 35006KT 04/04 A3023 RMK A01 T00370037  RH  100%=      5-min Rain = 0
KMC1 080202Z 35005KT 04/04 A3023 RMK A01 T00370037  RH  100%=      5-min Rain = 0
KMC1 080203Z 35007KT 04/04 A3023 RMK A01 T00370037  RH  100%=      5-min Rain = 0.01
KMC1 080204Z 34007KT 04/04 A3023 RMK A01 T00370037  RH  100%=      5-min Rain = 0
KMC1 080205Z 34007KT 04/04 A3023 RMK A01 T00370037  RH  100%=      5-min Rain = 0
KMC1 080206Z 35008KT 04/04 A3023 RMK A01 T00370037  RH  100%=      5-min Rain = 0
KMC1 080207Z 35006KT 04/04 A3023 RMK A01 T00370037  RH  100%=      5-min Rain = 0
KMC1 080208Z 35007KT 04/04 A3023 RMK A01 T00370037  RH  100%=      5-min Rain = 0
KMC1 080209Z 34006KT 04/04 A3023 RMK A01 T00370037  RH  100%=      5-min Rain = 0.01
KMC1 080210Z 34007KT 04/04 A3023 RMK A01 T00370036  RH  100%=      5-min Rain = 0
KMC1 080211Z 35005KT 04/04 A3023 RMK A01 T00370037  RH  100%=      5-min Rain = 0
KMC1 080212Z 35008KT 04/04 A3023 RMK A01 T00360036  RH  100%=      5-min Rain = 0
KMC1 080213Z 35007KT 04/04 A3023 RMK A01 T00360036  RH  100%=      5-min Rain = 0
KMC1 080214Z 35006KT 04/04 A3024 RMK A01 T00360036  RH  100%=      5-min Rain = 0.01
KMC1 080215Z 35006KT 04/04 A3024 RMK A01 T00360036  RH  100%=      5-min Rain = 0
KMC1 080216Z 35006KT 04/04 A3024 RMK A01 T00360035  RH  100%=      5-min Rain = 0
KMC1 080217Z 35004KT 04/04 A3024 RMK A01 T00360036  RH  100%=      5-min Rain = 0
KMC1 080218Z 35003KT 04/04 A3024 RMK A01 T00360036  RH  100%=      5-min Rain = 0
KMC1 080219Z 00004KT 04/04 A3024 RMK A01 T00360036  RH  100%=      5-min Rain = 0
KMC1 080220Z 36006KT 04/04 A3024 RMK A01 T00360036  RH  100%=      5-min Rain = 0
KMC1 080221Z 35004KT 04/04 A3024 RMK A01 T00360036  RH  100%=      5-min Rain = 0.01
KMC1 080222Z 34004KT 04/04 A3024 RMK A01 T00360035  RH  100%=      5-min Rain = 0
KMC1 080223Z 34005KT 04/04 A3024 RMK A01 T00360036  RH  100%=      5-min Rain = 0
KMC1 080224Z 34004KT 04/04 A3024 RMK A01 T00360036  RH  100%=      5-min Rain = 0
KMC1 080225Z 33003KT 04/04 A3024 RMK A01 T00360036  RH  100%=      5-min Rain = 0
KMC1 080226Z 33003KT 04/04 A3024 RMK A01 T00360036  RH  100%=      5-min Rain = 0
KMC1 080227Z 32004KT 04/04 A3024 RMK A01 T00360036  RH  100%=      5-min Rain = 0.01
KMC1 080228Z 34006KT 04/04 A3024 RMK A01 T00360036  RH  100%=      5-min Rain = 0
KMC1 080229Z 33005KT 04/04 A3024 RMK A01 T00360036  RH  100%=      5-min Rain = 0
KMC1 080230Z 34004KT 04/04 A3024 RMK A01 T00350035  RH  100%=      5-min Rain = 0
KMC1 080231Z 34005KT 04/04 A3024 RMK A01 T00350035  RH  100%=      5-min Rain = 0
KMC1 080232Z 34004KT 04/04 A3024 RMK A01 T00350035  RH  100%=      5-min Rain = 0.01
KMC1 080233Z 34004KT 04/04 A3024 RMK A01 T00350035  RH  100%=      5-min Rain = 0
KMC1 080234Z 34004KT 04/04 A3024 RMK A01 T00350035  RH  100%=      5-min Rain = 0
KMC1 080235Z 34006KT 04/04 A3024 RMK A01 T00350035  RH  100%=      5-min Rain = 0
KMC1 080236Z 34004KT 04/04 A3024 RMK A01 T00350035  RH  100%=      5-min Rain = 0
KMC1 080237Z 34006KT 04/04 A3024 RMK A01 T00350035  RH  100%=      5-min Rain = 0
KMC1 080238Z 34006KT 04/04 A3024 RMK A01 T00350035  RH  100%=      5-min Rain = 0.01
KMC1 080239Z 35006KT 04/04 A3024 RMK A01 T00350035  RH  100%=      5-min Rain = 0
KMC1 080240Z 35007KT 04/04 A3024 RMK A01 T00350035  RH  100%=      5-min Rain = 0
KMC1 080241Z 35008KT 04/04 A3024 RMK A01 T00350035  RH  100%=      5-min Rain = 0
KMC1 080242Z 35007KT 04/04 A3024 RMK A01 T00350035  RH  100%=      5-min Rain = 0
KMC1 080243Z 35006KT 04/04 A3024 RMK A01 T00350035  RH  100%=      5-min Rain = 0
KMC1 080244Z 00005KT 04/04 A3024 RMK A01 T00350035  RH  100%=      5-min Rain = 0
KMC1 080245Z 01005KT 04/03 A3024 RMK A01 T00350034  RH  100%=      5-min Rain = 0.01
KMC1 080246Z 01004KT 03/03 A3023 RMK A01 T00340034  RH  100%=      5-min Rain = 0
KMC1 080247Z 01005KT 03/03 A3023 RMK A01 T00340034  RH  100%=      5-min Rain = 0
KMC1 080248Z 01005KT 03/03 A3023 RMK A01 T00340034  RH  100%=      5-min Rain = 0
KMC1 080249Z 02004KT 04/03 A3023 RMK A01 T00350034  RH  100%=      5-min Rain = 0
KMC1 080250Z 02004KT 03/03 A3023 RMK A01 T00340034  RH  100%=      5-min Rain = 0
KMC1 080251Z 01004KT 03/03 A3023 RMK A01 T00340034  RH  100%=      5-min Rain = 0
KMC1 080252Z 36004KT 04/04 A3023 RMK A01 T00350035  RH  100%=      5-min Rain = 0.01
KMC1 080253Z 36004KT 03/03 A3023 RMK A01 T00340034  RH  100%=      5-min Rain = 0
KMC1 080254Z 36004KT 04/04 A3024 RMK A01 T00350035  RH  100%=      5-min Rain = 0
KMC1 080255Z 36004KT 03/03 A3024 RMK A01 T00340034  RH  100%=      5-min Rain = 0
KMC1 080256Z 36004KT 04/03 A3024 RMK A01 T00350034  RH  100%=      5-min Rain = 0
KMC1 080257Z 01004KT 03/03 A3024 RMK A01 T00340034  RH  100%=      5-min Rain = 0
KMC1 080258Z 01004KT 03/03 A3024 RMK A01 T00340034  RH  100%=      5-min Rain = 0
KMC1 080259Z 01004KT 03/03 A3024 RMK A01 T00340034  RH  100%=      5-min Rain = 0
KMC1 080300Z 01003KT 04/04 A3024 RMK A01 T00350035  RH  100%=      5-min Rain = 0
KMC1 080301Z 03003KT 03/03 A3024 RMK A01 T00340034  RH  100%=      5-min Rain = 0
KMC1 080302Z 03004KT 04/04 A3024 RMK A01 T00350035  RH  100%=      5-min Rain = 0.01
KMC1 080303Z 03004KT 03/03 A3023 RMK A01 T00340034  RH  100%=      5-min Rain = 0
KMC1 080304Z 04005KT 03/03 A3023 RMK A01 T00340034  RH  100%=      5-min Rain = 0
KMC1 080305Z 04005KT 03/03 A3023 RMK A01 T00340034  RH  100%=      5-min Rain = 0
KMC1 080306Z 04004KT 03/03 A3022 RMK A01 T00340034  RH  100%=      5-min Rain = 0
KMC1 080307Z 05004KT 03/03 A3022 RMK A01 T00340034  RH  100%=      5-min Rain = 0
KMC1 080308Z 03004KT 03/03 A3022 RMK A01 T00340034  RH  100%=      5-min Rain = 0
KMC1 080309Z 03004KT 03/03 A3022 RMK A01 T00340034  RH  100%=      5-min Rain = 0
KMC1 080310Z 03004KT 03/03 A3022 RMK A01 T00340034  RH  100%=      5-min Rain = 0
KMC1 080311Z 02004KT 03/03 A3023 RMK A01 T00340034  RH  100%=      5-min Rain = 0
KMC1 080312Z 02005KT 03/03 A3023 RMK A01 T00340034  RH  100%=      5-min Rain = 0.01
KMC1 080313Z 01006KT 03/03 A3023 RMK A01 T00340034  RH  100%=      5-min Rain = 0
KMC1 080314Z 01006KT 03/03 A3023 RMK A01 T00340034  RH  100%=      5-min Rain = 0
KMC1 080315Z 00005KT 03/03 A3023 RMK A01 T00340034  RH  100%=      5-min Rain = 0
KMC1 080316Z 01007KT 03/03 A3022 RMK A01 T00340034  RH  100%=      5-min Rain = 0
KMC1 080317Z 02006KT 03/03 A3022 RMK A01 T00340034  RH  100%=      5-min Rain = 0
KMC1 080318Z 03006KT 03/03 A3022 RMK A01 T00340034  RH  100%=      5-min Rain = 0
KMC1 080319Z 04005KT 03/03 A3021 RMK A01 T00340034  RH  100%=      5-min Rain = 0
KMC1 080320Z 03007KT 03/03 A3021 RMK A01 T00340034  RH  100%=      5-min Rain = 0
KMC1 080321Z 04006KT 03/03 A3021 RMK A01 T00340034  RH  100%=      5-min Rain = 0
KMC1 080322Z 04007KT 03/03 A3021 RMK A01 T00340034  RH  100%=      5-min Rain = 0
KMC1 080323Z 04006KT 03/03 A3021 RMK A01 T00330033  RH  100%=      5-min Rain = 0
KMC1 080324Z 04005KT 03/03 A3021 RMK A01 T00340034  RH  100%=      5-min Rain = 0
KMC1 080325Z 04004KT 03/03 A3021 RMK A01 T00340034  RH  100%=      5-min Rain = 0
KMC1 080326Z 03004KT 03/03 A3022 RMK A01 T00340034  RH  100%=      5-min Rain = 0
KMC1 080327Z 02004KT 03/03 A3022 RMK A01 T00330033  RH  100%=      5-min Rain = 0
KMC1 080328Z 01003KT 03/03 A3023 RMK A01 T00340034  RH  100%=      5-min Rain = 0
KMC1 080329Z 00004KT 03/03 A3023 RMK A01 T00340034  RH  100%=      5-min Rain = 0
KMC1 080330Z 35003KT 03/03 A3023 RMK A01 T00340034  RH  100%=      5-min Rain = 0
KMC1 080331Z 36004KT 03/03 A3024 RMK A01 T00340034  RH  100%=      5-min Rain = 0
KMC1 080332Z 00004KT 03/03 A3024 RMK A01 T00340034  RH  100%=      5-min Rain = 0
KMC1 080333Z 36004KT 03/03 A3024 RMK A01 T00340034  RH  100%=      5-min Rain = 0
KMC1 080334Z 00004KT 03/03 A3024 RMK A01 T00340034  RH  100%=      5-min Rain = 0
KMC1 080335Z 36004KT 03/03 A3024 RMK A01 T00340034  RH  100%=      5-min Rain = 0
KMC1 080336Z 36005KT 03/03 A3023 RMK A01 T00340034  RH  100%=      5-min Rain = 0.01
KMC1 080337Z 02006KT 03/03 A3023 RMK A01 T00340034  RH  100%=      5-min Rain = 0
KMC1 080338Z 01006KT 03/03 A3023 RMK A01 T00340034  RH  100%=      5-min Rain = 0
KMC1 080339Z 02008KT 03/03 A3023 RMK A01 T00340034  RH  100%=      5-min Rain = 0
KMC1 080340Z 02007KT 03/03 A3023 RMK A01 T00340034  RH  100%=      5-min Rain = 0
KMC1 080341Z 02007KT 03/03 A3023 RMK A01 T00340034  RH  100%=      5-min Rain = 0
KMC1 080342Z 02006KT 03/03 A3023 RMK A01 T00340034  RH  100%=      5-min Rain = 0
KMC1 080343Z 02005KT 03/03 A3023 RMK A01 T00330033  RH  100%=      5-min Rain = 0
KMC1 080344Z 01004KT 03/03 A3023 RMK A01 T00340033  RH  100%=      5-min Rain = 0
KMC1 080345Z 02005KT 03/03 A3023 RMK A01 T00330033  RH  100%=      5-min Rain = 0
KMC1 080346Z 02005KT 03/03 A3023 RMK A01 T00330033  RH  100%=      5-min Rain = 0
KMC1 080347Z 03005KT 03/03 A3023 RMK A01 T00340034  RH  100%=      5-min Rain = 0
KMC1 080348Z 03006KT 03/03 A3023 RMK A01 T00330033  RH  100%=      5-min Rain = 0
KMC1 080349Z 02007KT 03/03 A3023 RMK A01 T00340033  RH  100%=      5-min Rain = 0
KMC1 080350Z 03007KT 03/03 A3023 RMK A01 T00340034  RH  100%=      5-min Rain = 0
KMC1 080351Z 03008KT 03/03 A3023 RMK A01 T00340033  RH  100%=      5-min Rain = 0
KMC1 080352Z 02008KT 03/03 A3022 RMK A01 T00340034  RH  100%=      5-min Rain = 0
KMC1 080353Z 03009KT 03/03 A3022 RMK A01 T00330033  RH  100%=      5-min Rain = 0
KMC1 080354Z 03009KT 03/03 A3022 RMK A01 T00330033  RH  100%=      5-min Rain = 0
KMC1 080355Z 03009KT 03/03 A3021 RMK A01 T00330033  RH  100%=      5-min Rain = 0
KMC1 080356Z 03009KT 03/03 A3021 RMK A01 T00330033  RH  100%=      5-min Rain = 0
KMC1 080357Z 03008KT 03/03 A302 RMK A01 T00330032  RH  100%=      5-min Rain = 0
KMC1 080358Z 04007KT 03/03 A302 RMK A01 T00330032  RH  100%=      5-min Rain = 0
KMC1 080359Z 04005KT 03/03 A302 RMK A01 T00330033  RH  100%=      5-min Rain = 0
KMC1 080400Z 03007KT 03/03 A3021 RMK A01 T00330033  RH  100%=      5-min Rain = 0
KMC1 080401Z 03007KT 03/03 A3021 RMK A01 T00330033  RH  100%=      5-min Rain = 0
KMC1 080402Z 03006KT 03/03 A3022 RMK A01 T00330033  RH  100%=      5-min Rain = 0
KMC1 080403Z 03007KT 03/03 A3022 RMK A01 T00330032  RH  100%=      5-min Rain = 0
KMC1 080404Z 02007KT 03/03 A3022 RMK A01 T00330032  RH  100%=      5-min Rain = 0
KMC1 080405Z 03007KT 03/03 A3022 RMK A01 T00330033  RH  100%=      5-min Rain = 0
KMC1 080406Z 04007KT 03/03 A3021 RMK A01 T00330033  RH  100%=      5-min Rain = 0
KMC1 080407Z 03007KT 03/03 A3021 RMK A01 T00330033  RH  100%=      5-min Rain = 0
KMC1 080408Z 04008KT 03/03 A3021 RMK A01 T00330033  RH  100%=      5-min Rain = 0
KMC1 080409Z 04009KT 03/03 A302 RMK A01 T00330033  RH  100%=      5-min Rain = 0
KMC1 080410Z 04008KT 03/03 A302 RMK A01 T00330033  RH  100%=      5-min Rain = 0
KMC1 080411Z 04010KT 03/03 A302 RMK A01 T00320032  RH  100%=      5-min Rain = 0
KMC1 080412Z 03008KT 03/03 A302 RMK A01 T00330033  RH  100%=      5-min Rain = 0
KMC1 080413Z 03008KT 03/03 A302 RMK A01 T00330033  RH  100%=      5-min Rain = 0
KMC1 080414Z 03006KT 03/03 A302 RMK A01 T00330033  RH  100%=      5-min Rain = 0
KMC1 080415Z 03008KT 03/03 A302 RMK A01 T00330033  RH  100%=      5-min Rain = 0
KMC1 080416Z 03008KT 03/03 A3021 RMK A01 T00330033  RH  100%=      5-min Rain = 0
KMC1 080417Z 03007KT 03/03 A3021 RMK A01 T00320032  RH  100%=      5-min Rain = 0
KMC1 080418Z 03007KT 03/03 A302 RMK A01 T00320032  RH  100%=      5-min Rain = 0
KMC1 080419Z 04005KT 03/03 A302 RMK A01 T00320032  RH  100%=      5-min Rain = 0
KMC1 080420Z 04006KT 03/03 A3019 RMK A01 T00320032  RH  100%=      5-min Rain = 0
KMC1 080421Z 04007KT 03/03 A3019 RMK A01 T00320032  RH  100%=      5-min Rain = 0
KMC1 080422Z 04008KT 03/03 A3018 RMK A01 T00320032  RH  100%=      5-min Rain = 0
KMC1 080423Z 04011KT 03/03 A3017 RMK A01 T00320032  RH  100%=      5-min Rain = 0
KMC1 080424Z 04009G14KT 03/03 A3017 RMK A01 T00320032  RH  100%=      5-min Rain = 0
KMC1 080425Z 04008KT 03/03 A3017 RMK A01 T00320032  RH  100%=      5-min Rain = 0
KMC1 080426Z 03008KT 03/03 A3018 RMK A01 T00320032  RH  100%=      5-min Rain = 0
KMC1 080427Z 03008KT 03/03 A3018 RMK A01 T00320032  RH  100%=      5-min Rain = 0
KMC1 080428Z 03008KT 03/03 A3018 RMK A01 T00320032  RH  100%=      5-min Rain = 0
KMC1 080429Z 02009KT 03/03 A3018 RMK A01 T00320032  RH  100%=      5-min Rain = 0
KMC1 080430Z 03010KT 03/03 A3017 RMK A01 T00320032  RH  100%=      5-min Rain = 0
KMC1 080431Z 04011KT 03/03 A3017 RMK A01 T00320032  RH  100%=      5-min Rain = 0
KMC1 080432Z 04009KT 03/03 A3017 RMK A01 T00320032  RH  100%=      5-min Rain = 0
KMC1 080433Z 04009KT 03/03 A3016 RMK A01 T00320032  RH  100%=      5-min Rain = 0
KMC1 080434Z 04009KT 03/03 A3016 RMK A01 T00320032  RH  100%=      5-min Rain = 0
KMC1 080435Z 04008KT 03/03 A3016 RMK A01 T00310031  RH  100%=      5-min Rain = 0
KMC1 080436Z 04010KT 03/03 A3015 RMK A01 T00310031  RH  100%=      5-min Rain = 0
KMC1 080437Z 04007KT 03/03 A3015 RMK A01 T00310031  RH  100%=      5-min Rain = 0
KMC1 080438Z 03010KT 03/03 A3015 RMK A01 T00310031  RH  100%=      5-min Rain = 0
KMC1 080439Z 04010KT 03/03 A3015 RMK A01 T00310031  RH  100%=      5-min Rain = 0
KMC1 080440Z 03011KT 03/03 A3015 RMK A01 T00310031  RH  100%=      5-min Rain = 0
KMC1 080441Z 03009KT 03/03 A3015 RMK A01 T00310031  RH  100%=      5-min Rain = 0
KMC1 080442Z 04013KT 03/03 A3015 RMK A01 T00310031  RH  100%=      5-min Rain = 0
KMC1 080443Z 02009KT 03/03 A3015 RMK A01 T00310031  RH  100%=      5-min Rain = 0
KMC1 080444Z 03010KT 03/03 A3016 RMK A01 T00310031  RH  100%=      5-min Rain = 0
KMC1 080445Z 03009KT 03/03 A3016 RMK A01 T00310031  RH  100%=      5-min Rain = 0
KMC1 080446Z 03008KT 03/03 A3016 RMK A01 T00310031  RH  100%=      5-min Rain = 0
KMC1 080447Z 02009KT 03/03 A3016 RMK A01 T00310031  RH  100%=      5-min Rain = 0
KMC1 080448Z 03007KT 03/03 A3016 RMK A01 T00310031  RH  100%=      5-min Rain = 0
KMC1 080449Z 04010KT 03/03 A3015 RMK A01 T00310031  RH  100%=      5-min Rain = 0
KMC1 080450Z 02008KT 03/03 A3016 RMK A01 T00310031  RH  100%=      5-min Rain = 0
KMC1 080451Z 02009KT 03/03 A3016 RMK A01 T00310031  RH  100%=      5-min Rain = 0
KMC1 080452Z 01007KT 03/03 A3017 RMK A01 T00310031  RH  100%=      5-min Rain = 0
KMC1 080453Z 01005KT 03/03 A3017 RMK A01 T00310031  RH  100%=      5-min Rain = 0
KMC1 080454Z 00007KT 03/03 A3018 RMK A01 T00310031  RH  100%=      5-min Rain = 0
KMC1 080455Z 00007KT 03/03 A3018 RMK A01 T00310031  RH  100%=      5-min Rain = 0
KMC1 080456Z 00007KT 03/03 A3018 RMK A01 T00310031  RH  100%=      5-min Rain = 0
KMC1 080457Z 35008KT 03/03 A3018 RMK A01 T00310031  RH  100%=      5-min Rain = 0
KMC1 080458Z 00009KT 03/03 A3019 RMK A01 T00310031  RH  100%=      5-min Rain = 0
KMC1 080459Z 00005KT 03/03 A3019 RMK A01 T00310031  RH  100%=      5-min Rain = 0
KMC1 080500Z 35008KT 03/03 A3019 RMK A01 T00310031  RH  100%=      5-min Rain = 0
KMC1 080501Z 00006KT 03/03 A302 RMK A01 T00310031  RH  100%=      5-min Rain = 0
KMC1 080502Z 00006KT 03/03 A3019 RMK A01 T00310031  RH  100%=      5-min Rain = 0
KMC1 080503Z 02008KT 03/03 A3019 RMK A01 T00320031  RH  100%=      5-min Rain = 0
KMC1 080504Z 01009KT 03/03 A3019 RMK A01 T00320031  RH  100%=      5-min Rain = 0
KMC1 080505Z 01008KT 03/03 A3018 RMK A01 T00310031  RH  100%=      5-min Rain = 0
KMC1 080506Z 01007KT 03/03 A3018 RMK A01 T00310031  RH  100%=      5-min Rain = 0
KMC1 080507Z 01006KT 03/03 A3018 RMK A01 T00310031  RH  100%=      5-min Rain = 0
KMC1 080508Z 01006KT 03/03 A3018 RMK A01 T00310031  RH  100%=      5-min Rain = 0
KMC1 080509Z 01007KT 03/03 A3018 RMK A01 T00310031  RH  100%=      5-min Rain = 0
KMC1 080510Z 01007KT 03/03 A3018 RMK A01 T00310031  RH  100%=      5-min Rain = 0
KMC1 080511Z 01008KT 03/03 A3019 RMK A01 T00320031  RH  100%=      5-min Rain = 0
KMC1 080512Z 02007KT 03/03 A3019 RMK A01 T00310031  RH  100%=      5-min Rain = 0
KMC1 080513Z 02008KT 03/03 A3019 RMK A01 T00310030  RH  100%=      5-min Rain = 0
KMC1 080514Z 02007KT 03/03 A3019 RMK A01 T00310030  RH  100%=      5-min Rain = 0.01
KMC1 080515Z 02007KT 03/03 A3018 RMK A01 T00310030  RH  100%=      5-min Rain = 0
KMC1 080516Z 02008KT 03/03 A3018 RMK A01 T00310031  RH  100%=      5-min Rain = 0
KMC1 080517Z 02009KT 03/03 A3018 RMK A01 T00310031  RH  100%=      5-min Rain = 0
KMC1 080518Z 01006KT 03/03 A3019 RMK A01 T00310031  RH  100%=      5-min Rain = 0
KMC1 080519Z 01007KT 03/03 A3019 RMK A01 T00310031  RH  100%=      5-min Rain = 0
KMC1 080520Z 00005KT 03/03 A3019 RMK A01 T00310031  RH  099%=      5-min Rain = 0
KMC1 080521Z 01006KT 03/03 A302 RMK A01 T00320031  RH  099%=      5-min Rain = 0
KMC1 080522Z 01005KT 03/03 A302 RMK A01 T00320031  RH  099%=      5-min Rain = 0
KMC1 080523Z 02007KT 03/03 A3019 RMK A01 T00320031  RH  099%=      5-min Rain = 0
KMC1 080524Z 02006KT 03/03 A3019 RMK A01 T00320031  RH  099%=      5-min Rain = 0
KMC1 080525Z 02007KT 03/03 A3019 RMK A01 T00320031  RH  099%=      5-min Rain = 0
KMC1 080526Z 01008KT 03/03 A3019 RMK A01 T00320031  RH  099%=      5-min Rain = 0
KMC1 080527Z 01006KT 03/03 A302 RMK A01 T00320031  RH  099%=      5-min Rain = 0
KMC1 080528Z 01005KT 03/03 A302 RMK A01 T00320031  RH  099%=      5-min Rain = 0
KMC1 080529Z 01005KT 03/03 A302 RMK A01 T00320031  RH  099%=      5-min Rain = 0
KMC1 080530Z 00005KT 03/03 A302 RMK A01 T00320031  RH  099%=      5-min Rain = 0
KMC1 080531Z 02006KT 03/03 A302 RMK A01 T00320031  RH  099%=      5-min Rain = 0
KMC1 080532Z 01005KT 03/03 A302 RMK A01 T00320031  RH  099%=      5-min Rain = 0
KMC1 080533Z 36004KT 03/03 A302 RMK A01 T00320031  RH  099%=      5-min Rain = 0
KMC1 080534Z 01008KT 03/03 A302 RMK A01 T00320031  RH  099%=      5-min Rain = 0
KMC1 080535Z 00006KT 03/03 A302 RMK A01 T00320031  RH  099%=      5-min Rain = 0
KMC1 080536Z 00006KT 03/03 A3021 RMK A01 T00320031  RH  099%=      5-min Rain = 0
KMC1 080537Z 00005KT 03/03 A3021 RMK A01 T00320031  RH  099%=      5-min Rain = 0
KMC1 080538Z 34004KT 03/03 A3021 RMK A01 T00330032  RH  099%=      5-min Rain = 0
KMC1 080539Z 35004KT 03/03 A3021 RMK A01 T00330032  RH  099%=      5-min Rain = 0
KMC1 080540Z 36006KT 03/03 A3021 RMK A01 T00330032  RH  099%=      5-min Rain = 0
KMC1 080541Z 00006KT 03/03 A3021 RMK A01 T00330032  RH  099%=      5-min Rain = 0
KMC1 080542Z 36006KT 03/03 A3021 RMK A01 T00330032  RH  099%=      5-min Rain = 0
KMC1 080543Z 35005KT 03/03 A3021 RMK A01 T00330032  RH  099%=      5-min Rain = 0
KMC1 080544Z 36004KT 03/03 A3021 RMK A01 T00330032  RH  099%=      5-min Rain = 0
KMC1 080545Z 00004KT 03/03 A3021 RMK A01 T00330032  RH  099%=      5-min Rain = 0
KMC1 080546Z 00004KT 03/03 A3021 RMK A01 T00330032  RH  099%=      5-min Rain = 0
KMC1 080547Z 36003KT 03/03 A3021 RMK A01 T00330032  RH  099%=      5-min Rain = 0
KMC1 080548Z 01004KT 03/03 A3021 RMK A01 T00330032  RH  099%=      5-min Rain = 0
KMC1 080549Z 00006KT 03/03 A3021 RMK A01 T00330032  RH  099%=      5-min Rain = 0
KMC1 080550Z 01007KT 03/03 A302 RMK A01 T00330032  RH  099%=      5-min Rain = 0
KMC1 080551Z 01007KT 03/03 A302 RMK A01 T00330032  RH  099%=      5-min Rain = 0
KMC1 080552Z 01006KT 03/03 A3019 RMK A01 T00330032  RH  099%=      5-min Rain = 0
KMC1 080553Z 01007KT 03/03 A3019 RMK A01 T00330032  RH  099%=      5-min Rain = 0
KMC1 080554Z 01006KT 03/03 A3019 RMK A01 T00330032  RH  099%=      5-min Rain = 0
KMC1 080555Z 36007KT 03/03 A302 RMK A01 T00330032  RH  099%=      5-min Rain = 0
KMC1 080556Z 35007KT 03/03 A302 RMK A01 T00330032  RH  099%=      5-min Rain = 0
KMC1 080557Z 35005KT 03/03 A302 RMK A01 T00320032  RH  099%=      5-min Rain = 0
KMC1 080558Z 00005KT 03/03 A302 RMK A01 T00330032  RH  099%=      5-min Rain = 0
KMC1 080559Z 01006KT 03/03 A302 RMK A01 T00330032  RH  100%=      5-min Rain = 0

Page generated in 0.1223 seconds.